KAL2687 RKSI-EGLL

Flight info

Callsign KAL2687
Flight time 13h 14m
Altitude 36000
Route NOPIK Y697 AGAVO A591 IKEKA W4 HCH W200 DOVIV W55 PAMRU W34 LADIX B339 ASILA A575 UPREK W28 LAGEB W66 NUKTI B215 FKG A368 SARIN N161 LEKBA DCT LEYLA T916 MATAL M11 REBLO UM11 CRM UL746 ODERO L746 LUGEB DCT BUDOP DCT BEGLA DCT DEXIT DCT INBED DCT BOMBI DCT ADKUV DCT SOGRI DCT DENUT L608 LOGAN
Aircraft B77W/H-SDE1E2E3FGHIJ2J3J4J5M1RWXY/LB1D1

Departure

Time 2026-05-04 07:20
Airport Incheon International Airport (RKSI)

Arrival

Time 2026-05-04 20:34
Airport London Heathrow Airport (EGLL)
Time Latitude Longitude Altitude Speed Heading
2026-05-04 05:48 37.44996 126.44920 35 ft 0 kts 149°
2026-05-04 07:04 37.44999 126.44918 35 ft 3 kts 149°
2026-05-04 07:04 37.45013 126.44907 35 ft 2 kts 149°
2026-05-04 07:04 37.45026 126.44898 35 ft 2 kts 149°
2026-05-04 07:04 37.45039 126.44888 35 ft 2 kts 149°
2026-05-04 07:05 37.45052 126.44879 35 ft 2 kts 149°
2026-05-04 07:05 37.45065 126.44869 35 ft 2 kts 149°
2026-05-04 07:05 37.45078 126.44859 35 ft 2 kts 149°
2026-05-04 07:05 37.45086 126.44853 35 ft 1 kts 149°
2026-05-04 07:06 37.45110 126.44832 35 ft 2 kts 137°
2026-05-04 07:06 37.45121 126.44819 35 ft 2 kts 131°
2026-05-04 07:06 37.45128 126.44809 35 ft 1 kts 128°
2026-05-04 07:07 37.45128 126.44808 35 ft 0 kts 128°
2026-05-04 07:12 37.45113 126.44864 35 ft 7 kts 91°
2026-05-04 07:12 37.45143 126.44933 35 ft 10 kts 24°
2026-05-04 07:12 37.45227 126.44926 35 ft 13 kts 346°
2026-05-04 07:12 37.45322 126.44886 35 ft 14 kts 329°
2026-05-04 07:13 37.45356 126.44791 35 ft 11 kts 256°
2026-05-04 07:13 37.45320 126.44706 35 ft 11 kts 238°
2026-05-04 07:13 37.45272 126.44617 35 ft 13 kts 233°
2026-05-04 07:14 37.45020 126.44171 35 ft 14 kts 234°
2026-05-04 07:14 37.44966 126.44076 35 ft 11 kts 234°
2026-05-04 07:15 37.44919 126.43998 35 ft 11 kts 221°
2026-05-04 07:15 37.44850 126.43990 35 ft 9 kts 159°
2026-05-04 07:15 37.44795 126.44029 35 ft 8 kts 146°
2026-05-04 07:15 37.44750 126.44070 35 ft 8 kts 144°
2026-05-04 07:16 37.44688 126.44126 35 ft 13 kts 144°
2026-05-04 07:16 37.44609 126.44196 35 ft 13 kts 145°
2026-05-04 07:16 37.44534 126.44261 35 ft 12 kts 144°
2026-05-04 07:16 37.44463 126.44300 35 ft 10 kts 187°
2026-05-04 07:17 37.44411 126.44254 35 ft 9 kts 229°
2026-05-04 07:17 37.44362 126.44172 35 ft 13 kts 233°
2026-05-04 07:17 37.44300 126.44065 35 ft 16 kts 235°
2026-05-04 07:17 37.44229 126.43936 35 ft 19 kts 235°
2026-05-04 07:18 37.44167 126.43823 35 ft 5 kts 236°
2026-05-04 07:18 37.44160 126.43791 35 ft 3 kts 276°
2026-05-04 07:18 37.44172 126.43753 35 ft 6 kts 304°
2026-05-04 07:18 37.44208 126.43709 35 ft 9 kts 322°
2026-05-04 07:19 37.44311 126.43613 35 ft 31 kts 324°
2026-05-04 07:19 37.44681 126.43284 35 ft 97 kts 323°
2026-05-04 07:19 37.45396 126.42649 35 ft 154 kts 324°
2026-05-04 07:19 37.46422 126.41763 120 ft 196 kts 322°
2026-05-04 07:20 37.47549 126.40699 693 ft 204 kts 311°
2026-05-04 07:20 37.48444 126.39380 1626 ft 204 kts 309°
2026-05-04 07:20 37.49335 126.38067 2351 ft 201 kts 310°
2026-05-04 07:20 37.50075 126.36603 2978 ft 199 kts 291°
2026-05-04 07:22 37.50683 126.21724 6561 ft 265 kts 275°
2026-05-04 07:22 37.50760 126.19449 7281 ft 264 kts 274°
2026-05-04 07:23 37.50508 126.17116 7922 ft 272 kts 255°
2026-05-04 07:23 37.49642 126.15002 8480 ft 284 kts 236°
2026-05-04 07:23 37.48259 126.13107 8845 ft 298 kts 233°
2026-05-04 07:23 37.46989 126.11018 9300 ft 303 kts 240°
2026-05-04 07:24 37.45880 126.08856 10111 ft 295 kts 243°
2026-05-04 07:24 37.44791 126.06696 10796 ft 295 kts 242°
2026-05-04 07:24 37.43643 126.04486 11062 ft 311 kts 242°
2026-05-04 07:24 37.42426 126.02129 11305 ft 326 kts 244°
2026-05-04 07:25 37.41389 125.99594 11626 ft 335 kts 252°
2026-05-04 07:26 37.40450 125.78040 15176 ft 379 kts 274°
2026-05-04 07:27 37.40422 125.74795 16016 ft 377 kts 273°
2026-05-04 07:27 37.40376 125.71455 16355 ft 389 kts 273°
2026-05-04 07:27 37.40342 125.68019 16751 ft 399 kts 273°
2026-05-04 07:27 37.40299 125.64516 17376 ft 403 kts 272°
2026-05-04 07:28 37.40238 125.60984 17972 ft 407 kts 272°
2026-05-04 07:28 37.40176 125.57455 18660 ft 408 kts 273°
2026-05-04 07:28 37.40146 125.53896 19279 ft 410 kts 273°
2026-05-04 07:28 37.40109 125.50309 19865 ft 414 kts 272°
2026-05-04 07:29 37.40051 125.46667 20390 ft 419 kts 272°
2026-05-04 07:29 37.39974 125.42990 20976 ft 421 kts 272°
2026-05-04 07:29 37.39929 125.39352 21497 ft 425 kts 273°
2026-05-04 07:29 37.39905 125.35651 22168 ft 424 kts 273°
2026-05-04 07:30 37.39876 125.31921 22781 ft 426 kts 272°
2026-05-04 07:30 37.39823 125.28237 23325 ft 428 kts 272°
2026-05-04 07:30 37.39746 125.24455 23764 ft 433 kts 271°
2026-05-04 07:30 37.39661 125.20670 24349 ft 433 kts 271°
2026-05-04 07:31 37.39578 125.16904 24995 ft 432 kts 271°
2026-05-04 07:31 37.39505 125.13184 25530 ft 432 kts 271°
2026-05-04 07:33 37.38974 124.86237 28593 ft 449 kts 271°
2026-05-04 07:33 37.38902 124.82271 28925 ft 453 kts 271°
2026-05-04 07:33 37.38847 124.78323 29324 ft 455 kts 271°
2026-05-04 07:33 37.38784 124.74374 29850 ft 454 kts 271°
2026-05-04 07:34 37.38705 124.70458 30411 ft 452 kts 270°
2026-05-04 07:34 37.38600 124.66486 30920 ft 450 kts 270°
2026-05-04 07:34 37.38501 124.62567 31266 ft 451 kts 270°
2026-05-04 07:34 37.38409 124.58643 31562 ft 453 kts 270°
2026-05-04 07:35 37.38329 124.54689 31894 ft 453 kts 270°
2026-05-04 07:35 37.38258 124.50753 31937 ft 451 kts 270°
2026-05-04 07:35 37.37844 124.43010 32030 ft 447 kts 264°
2026-05-04 07:36 37.36321 124.35381 32024 ft 453 kts 251°
2026-05-04 07:38 37.23606 124.12426 32020 ft 460 kts 239°
2026-05-04 07:38 37.21798 124.09160 32028 ft 462 kts 239°
2026-05-04 07:38 37.18154 124.02548 32026 ft 459 kts 240°
2026-05-04 07:39 37.14616 123.95933 32027 ft 459 kts 241°
2026-05-04 07:39 37.11120 123.89189 32026 ft 458 kts 241°
2026-05-04 07:40 37.07664 123.82517 32029 ft 458 kts 241°
2026-05-04 07:40 37.04209 123.75848 32031 ft 458 kts 241°
2026-05-04 07:41 37.00756 123.69191 32030 ft 460 kts 241°
2026-05-04 07:41 36.97295 123.62536 32027 ft 447 kts 241°
2026-05-04 07:42 36.93932 123.56074 32030 ft 448 kts 241°
2026-05-04 07:42 36.90530 123.49549 32037 ft 448 kts 241°
2026-05-04 07:43 36.87270 123.42950 32025 ft 445 kts 248°
2026-05-04 07:43 36.85384 123.35712 32035 ft 440 kts 263°
2026-05-04 07:44 36.85205 123.28175 32046 ft 436 kts 277°
2026-05-04 07:44 36.86615 123.20812 32034 ft 437 kts 287°
2026-05-04 07:45 36.88385 123.13603 32036 ft 437 kts 287°
2026-05-04 07:45 36.90146 123.06351 32036 ft 437 kts 287°
2026-05-04 07:46 36.91891 122.99112 32040 ft 437 kts 287°
2026-05-04 07:46 36.93632 122.91852 32041 ft 436 kts 287°
2026-05-04 07:47 36.95354 122.84645 32031 ft 436 kts 287°
2026-05-04 07:49 37.02221 122.55638 32021 ft 439 kts 287°
2026-05-04 07:49 37.03928 122.48373 32026 ft 438 kts 287°
2026-05-04 07:50 37.05645 122.41043 32014 ft 439 kts 287°
2026-05-04 07:50 37.08146 122.34122 32010 ft 440 kts 302°
2026-05-04 07:51 37.12122 122.28327 32012 ft 442 kts 315°
2026-05-04 07:51 37.16045 122.22503 32020 ft 440 kts 300°
2026-05-04 07:52 37.18836 122.15711 32019 ft 441 kts 294°
2026-05-04 07:52 37.21289 122.08669 32014 ft 440 kts 292°
2026-05-04 07:54 37.29434 121.79759 32016 ft 441 kts 289°
2026-05-04 07:55 37.31335 121.72427 32016 ft 443 kts 289°
2026-05-04 07:55 37.33225 121.65074 32015 ft 443 kts 288°
2026-05-04 07:56 37.35110 121.57691 32008 ft 443 kts 288°
2026-05-04 07:56 37.36982 121.50325 32006 ft 443 kts 289°
2026-05-04 07:57 37.38840 121.42992 32003 ft 445 kts 288°
2026-05-04 07:57 37.40709 121.35585 32006 ft 443 kts 288°
2026-05-04 07:58 37.42575 121.28170 32004 ft 445 kts 288°
2026-05-04 07:58 37.44430 121.20775 32009 ft 445 kts 288°
2026-05-04 07:59 37.46437 121.13474 32012 ft 444 kts 292°
2026-05-04 07:59 37.48791 121.06267 32001 ft 446 kts 292°
2026-05-04 08:00 37.51127 120.99025 31996 ft 446 kts 292°
2026-05-04 08:02 37.60356 120.70112 31992 ft 447 kts 293°
2026-05-04 08:02 37.62738 120.62891 31991 ft 446 kts 293°
2026-05-04 08:03 37.65116 120.55674 31987 ft 448 kts 295°
2026-05-04 08:03 37.68087 120.48801 31991 ft 447 kts 301°
2026-05-04 08:04 37.71180 120.42040 31982 ft 447 kts 301°
2026-05-04 08:04 37.74292 120.35218 31977 ft 448 kts 301°
2026-05-04 08:05 37.77380 120.28426 31985 ft 448 kts 300°
2026-05-04 08:05 37.80492 120.21566 31983 ft 448 kts 300°
2026-05-04 08:06 37.83580 120.14742 31980 ft 450 kts 300°
2026-05-04 08:06 37.86686 120.07865 31972 ft 449 kts 300°
2026-05-04 08:08 37.98998 119.80451 31962 ft 449 kts 300°
2026-05-04 08:11 38.12468 119.49102 31949 ft 452 kts 294°
2026-05-04 08:11 38.16060 119.38084 31940 ft 452 kts 294°
2026-05-04 08:12 38.18459 119.30703 31938 ft 453 kts 294°
2026-05-04 08:12 38.20848 119.23331 31941 ft 452 kts 294°
2026-05-04 08:13 38.23235 119.15946 31941 ft 453 kts 294°
2026-05-04 08:13 38.25618 119.08556 31934 ft 452 kts 294°
2026-05-04 08:14 38.27997 119.01160 31934 ft 454 kts 294°
2026-05-04 08:16 38.37505 118.71419 31913 ft 453 kts 294°
2026-05-04 08:16 38.39877 118.63998 31916 ft 454 kts 294°
2026-05-04 08:17 38.42239 118.56583 31909 ft 454 kts 294°
2026-05-04 08:17 38.44606 118.49134 31925 ft 454 kts 294°
2026-05-04 08:19 38.54027 118.19264 31996 ft 454 kts 294°
2026-05-04 08:20 38.56367 118.11793 31981 ft 456 kts 294°
2026-05-04 08:20 38.58910 118.04390 31996 ft 453 kts 302°
2026-05-04 08:21 38.62750 117.98080 31980 ft 450 kts 315°
2026-05-04 08:21 38.67073 117.92318 31974 ft 450 kts 315°
2026-05-04 08:22 38.71379 117.86573 31978 ft 450 kts 315°
2026-05-04 08:24 38.88635 117.63412 31967 ft 450 kts 315°
2026-05-04 08:24 38.92949 117.57592 31983 ft 450 kts 315°
2026-05-04 08:25 38.97252 117.51777 31970 ft 450 kts 315°
2026-05-04 08:25 39.01533 117.45978 31966 ft 451 kts 315°
2026-05-04 08:27 39.10722 117.16447 31970 ft 459 kts 287°
2026-05-04 08:28 39.13141 117.08999 31959 ft 451 kts 303°
2026-05-04 08:28 39.17125 117.02795 31964 ft 449 kts 319°
2026-05-04 08:29 39.22283 116.98376 31971 ft 448 kts 335°
2026-05-04 08:31 39.46687 116.92305 31942 ft 447 kts 350°
2026-05-04 08:33 39.71336 116.87229 31918 ft 449 kts 350°
2026-05-04 08:35 39.95995 116.82249 31926 ft 450 kts 350°
2026-05-04 08:35 40.02171 116.81018 31935 ft 450 kts 350°
2026-05-04 08:37 40.19947 116.74316 31932 ft 448 kts 324°
2026-05-04 08:37 40.22326 116.71687 31922 ft 447 kts 316°
2026-05-04 08:38 40.26077 116.65274 31923 ft 450 kts 303°
2026-05-04 08:38 40.29244 116.58214 31933 ft 451 kts 302°
2026-05-04 08:40 40.41847 116.29858 31978 ft 451 kts 301°
2026-05-04 08:41 40.44970 116.22789 31986 ft 451 kts 301°
2026-05-04 08:41 40.48102 116.15686 31987 ft 450 kts 301°
2026-05-04 08:42 40.51244 116.08542 31981 ft 451 kts 301°
2026-05-04 08:42 40.54358 116.01447 31973 ft 451 kts 301°
2026-05-04 08:43 40.57480 115.94317 31982 ft 450 kts 301°
2026-05-04 08:43 40.60588 115.87200 31998 ft 450 kts 301°
2026-05-04 08:44 40.63693 115.80074 32011 ft 450 kts 301°
2026-05-04 08:46 40.76088 115.51463 32015 ft 450 kts 301°
2026-05-04 08:46 40.79162 115.44325 32025 ft 449 kts 301°
2026-05-04 08:47 40.82245 115.37151 32024 ft 450 kts 301°
2026-05-04 08:47 40.85316 115.29987 32038 ft 450 kts 301°
2026-05-04 08:48 40.88380 115.22820 32034 ft 450 kts 301°
2026-05-04 08:48 40.91453 115.15623 32030 ft 448 kts 301°
2026-05-04 08:49 40.94493 115.08465 32030 ft 450 kts 301°
2026-05-04 08:50 41.04969 114.83199 32012 ft 448 kts 300°
2026-05-04 08:51 41.07948 114.75987 32032 ft 449 kts 301°
2026-05-04 08:51 41.10981 114.68801 32046 ft 448 kts 301°
2026-05-04 08:52 41.14042 114.61603 32072 ft 447 kts 302°
2026-05-04 08:52 41.17130 114.54518 32045 ft 445 kts 301°
2026-05-04 08:54 41.29045 114.25742 32048 ft 447 kts 300°
2026-05-04 08:55 41.32056 114.18465 32046 ft 447 kts 301°
2026-05-04 08:55 41.35040 114.11238 32046 ft 446 kts 300°
2026-05-04 09:01 41.65902 113.35435 32043 ft 442 kts 301°
2026-05-04 09:01 41.68794 113.28230 32053 ft 443 kts 301°
2026-05-04 09:02 41.71700 113.20972 32053 ft 442 kts 301°
2026-05-04 09:02 41.74593 113.13731 32054 ft 441 kts 301°
2026-05-04 09:03 41.77470 113.06511 32045 ft 441 kts 301°
2026-05-04 09:03 41.80351 112.99264 32050 ft 441 kts 301°
2026-05-04 09:04 41.83225 112.92015 32039 ft 441 kts 301°
2026-05-04 09:04 41.86083 112.84789 32026 ft 441 kts 301°
2026-05-04 09:05 41.88939 112.77551 32019 ft 441 kts 301°
2026-05-04 09:05 41.91788 112.70314 32025 ft 441 kts 301°
2026-05-04 09:06 41.94358 112.62834 32014 ft 445 kts 291°
2026-05-04 09:08 42.00908 112.30743 32040 ft 447 kts 289°
2026-05-04 09:08 42.02531 112.22669 32044 ft 449 kts 289°
2026-05-04 09:09 42.04148 112.14592 32024 ft 447 kts 289°
2026-05-04 09:09 42.05765 112.06481 32046 ft 451 kts 289°
2026-05-04 09:10 42.07368 111.98411 32041 ft 448 kts 289°
2026-05-04 09:10 42.08962 111.90356 32030 ft 446 kts 289°
2026-05-04 09:11 42.10552 111.82285 32027 ft 449 kts 288°
2026-05-04 09:11 42.12144 111.74173 32026 ft 449 kts 288°
2026-05-04 09:12 42.13722 111.66095 32017 ft 447 kts 289°
2026-05-04 09:14 42.19917 111.33596 31997 ft 450 kts 282°
2026-05-04 09:14 42.20019 111.25080 31992 ft 462 kts 267°
2026-05-04 09:15 42.19153 111.16534 31984 ft 462 kts 266°
2026-05-04 09:15 42.18246 111.07970 31977 ft 463 kts 266°
2026-05-04 09:17 42.14050 110.69487 31987 ft 464 kts 266°
2026-05-04 09:18 42.13090 110.60879 31998 ft 463 kts 266°
2026-05-04 09:18 42.12133 110.52349 31997 ft 464 kts 266°
2026-05-04 09:19 42.11165 110.43790 32008 ft 464 kts 266°
2026-05-04 09:19 42.10191 110.35238 31998 ft 463 kts 266°
2026-05-04 09:20 42.09213 110.26691 32015 ft 465 kts 265°
2026-05-04 09:20 42.08221 110.18103 32028 ft 463 kts 265°
2026-05-04 09:21 42.07225 110.09526 32037 ft 466 kts 265°
2026-05-04 09:21 42.06227 110.00990 32040 ft 465 kts 265°
2026-05-04 09:22 42.05220 109.92430 32037 ft 465 kts 265°
2026-05-04 09:22 42.04204 109.83862 32045 ft 465 kts 265°
2026-05-04 09:23 42.03178 109.75258 32042 ft 465 kts 265°
2026-05-04 09:23 42.02150 109.66692 32032 ft 465 kts 265°
2026-05-04 09:25 41.97975 109.32484 32031 ft 466 kts 264°
2026-05-04 09:26 41.96912 109.23901 32030 ft 466 kts 264°
2026-05-04 09:26 41.95846 109.15362 32049 ft 467 kts 264°
2026-05-04 09:27 41.94766 109.06757 32063 ft 466 kts 264°
2026-05-04 09:27 41.93682 108.98176 32069 ft 467 kts 264°
2026-05-04 09:28 41.92593 108.89612 32063 ft 466 kts 264°
2026-05-04 09:28 41.91500 108.81065 32059 ft 467 kts 264°
2026-05-04 09:29 41.90400 108.72516 32055 ft 466 kts 264°
2026-05-04 09:29 41.89294 108.63981 32041 ft 466 kts 264°
2026-05-04 09:30 41.88180 108.55424 32039 ft 467 kts 264°
2026-05-04 09:30 41.87058 108.46864 32029 ft 468 kts 264°
2026-05-04 09:31 41.85926 108.38273 32021 ft 468 kts 264°
2026-05-04 09:31 41.84784 108.29667 32016 ft 468 kts 263°
2026-05-04 09:32 41.83643 108.21117 32010 ft 469 kts 263°
2026-05-04 09:34 41.79007 107.86878 32019 ft 468 kts 263°
2026-05-04 09:34 41.77829 107.78305 32027 ft 468 kts 263°
2026-05-04 09:35 41.76647 107.69746 32034 ft 468 kts 263°
2026-05-04 09:35 41.75465 107.61240 32033 ft 468 kts 263°
2026-05-04 09:37 41.70646 107.27055 32023 ft 469 kts 262°
2026-05-04 09:38 41.69418 107.18459 32017 ft 469 kts 262°
2026-05-04 09:38 41.68191 107.09923 32007 ft 470 kts 262°
2026-05-04 09:39 41.66956 107.01382 31994 ft 469 kts 262°
2026-05-04 09:39 41.65713 106.92827 31991 ft 469 kts 262°
2026-05-04 09:40 41.64470 106.84319 31995 ft 470 kts 261°
2026-05-04 09:40 41.63214 106.75774 31999 ft 469 kts 262°
2026-05-04 09:42 41.58131 106.41637 31996 ft 470 kts 261°
2026-05-04 09:43 41.56853 106.33170 31986 ft 469 kts 261°
2026-05-04 09:43 41.55560 106.24644 31982 ft 470 kts 261°
2026-05-04 09:44 41.54258 106.16110 31969 ft 470 kts 261°
2026-05-04 09:46 41.45281 105.83318 31957 ft 473 kts 251°
2026-05-04 09:46 41.42830 105.75221 31950 ft 472 kts 251°
2026-05-04 09:47 41.40378 105.67152 31942 ft 472 kts 251°
2026-05-04 09:49 41.40697 105.37714 31935 ft 460 kts 282°
2026-05-04 09:49 41.41225 105.33515 31935 ft 460 kts 281°
2026-05-04 09:51 41.44862 105.04196 31935 ft 458 kts 281°
2026-05-04 09:51 41.45877 104.95897 31932 ft 458 kts 281°
2026-05-04 09:52 41.46891 104.87556 31926 ft 457 kts 281°
2026-05-04 09:52 41.47901 104.79199 31920 ft 457 kts 281°
2026-05-04 09:53 41.48905 104.70840 31911 ft 457 kts 281°
2026-05-04 09:53 41.49895 104.62539 31915 ft 456 kts 281°
2026-05-04 09:54 41.50882 104.54211 31910 ft 455 kts 281°
2026-05-04 09:54 41.51868 104.45840 31907 ft 455 kts 281°
2026-05-04 09:55 41.52841 104.37534 31907 ft 456 kts 281°
2026-05-04 09:55 41.53810 104.29202 31915 ft 456 kts 281°
2026-05-04 09:56 41.54769 104.20900 31915 ft 454 kts 281°
2026-05-04 09:56 41.55722 104.12592 31916 ft 455 kts 281°
2026-05-04 09:57 41.56669 104.04291 31924 ft 454 kts 281°
2026-05-04 09:57 41.57611 103.95972 31923 ft 454 kts 281°
2026-05-04 09:58 41.58543 103.87691 31932 ft 452 kts 281°
2026-05-04 09:58 41.59472 103.79377 31944 ft 454 kts 281°
2026-05-04 10:00 41.63117 103.46209 31943 ft 452 kts 281°
2026-05-04 10:04 41.69247 102.88263 31950 ft 450 kts 280°
2026-05-04 10:04 41.70097 102.80000 31948 ft 449 kts 280°
2026-05-04 10:05 41.70941 102.71727 31949 ft 450 kts 280°
2026-05-04 10:05 41.71778 102.63469 31940 ft 449 kts 280°
2026-05-04 10:06 41.72606 102.55234 31941 ft 449 kts 280°
2026-05-04 10:06 41.73432 102.46958 31935 ft 449 kts 280°
2026-05-04 10:08 41.76266 102.18098 31923 ft 447 kts 279°
2026-05-04 10:08 41.77061 102.09860 31915 ft 448 kts 279°
2026-05-04 10:09 41.77851 102.01618 31906 ft 448 kts 279°
2026-05-04 10:09 41.78634 101.93380 31903 ft 449 kts 279°
2026-05-04 10:10 41.79411 101.85137 31901 ft 447 kts 279°
2026-05-04 10:10 41.80184 101.76877 31898 ft 447 kts 279°
2026-05-04 10:11 41.80945 101.68675 31896 ft 446 kts 279°
2026-05-04 10:11 41.81702 101.60458 31893 ft 446 kts 279°
2026-05-04 10:12 41.82457 101.52194 31889 ft 446 kts 279°
2026-05-04 10:12 41.83203 101.43971 31884 ft 446 kts 279°
2026-05-04 10:13 41.83939 101.35785 31886 ft 446 kts 279°
2026-05-04 10:13 41.84673 101.27553 31897 ft 446 kts 278°
2026-05-04 10:14 41.85171 101.19277 31903 ft 446 kts 274°
2026-05-04 10:16 41.85986 100.86164 31882 ft 445 kts 274°
2026-05-04 10:16 41.86170 100.77889 31881 ft 446 kts 274°
2026-05-04 10:17 41.86348 100.69598 31877 ft 445 kts 274°
2026-05-04 10:19 41.86995 100.36596 31890 ft 442 kts 274°
2026-05-04 10:19 41.87142 100.28367 31897 ft 442 kts 274°
2026-05-04 10:20 41.87283 100.20160 31894 ft 442 kts 274°
2026-05-04 10:20 41.87417 100.11953 31890 ft 442 kts 274°
2026-05-04 10:21 41.87545 100.03801 31874 ft 440 kts 274°
2026-05-04 10:21 41.87667 99.95602 31885 ft 439 kts 274°
2026-05-04 10:22 41.87839 99.83399 31908 ft 441 kts 274°
2026-05-04 10:23 41.87947 99.75198 31893 ft 438 kts 274°
2026-05-04 10:25 41.88319 99.42724 31920 ft 437 kts 274°
2026-05-04 10:25 41.88398 99.34564 31947 ft 437 kts 274°
2026-05-04 10:26 41.88470 99.26479 31964 ft 436 kts 274°
2026-05-04 10:26 41.88537 99.18373 31979 ft 435 kts 274°
2026-05-04 10:27 41.88599 99.10272 31988 ft 436 kts 274°
2026-05-04 10:27 41.88654 99.02162 32001 ft 435 kts 274°
2026-05-04 10:28 41.88704 98.94089 31997 ft 434 kts 274°
2026-05-04 10:28 41.88748 98.86005 32000 ft 434 kts 274°
2026-05-04 10:29 41.88786 98.77954 32001 ft 434 kts 274°
2026-05-04 10:29 41.88819 98.69913 31998 ft 432 kts 274°
2026-05-04 10:30 41.88846 98.61826 32017 ft 433 kts 274°
2026-05-04 10:30 41.88868 98.53757 32018 ft 433 kts 274°
2026-05-04 10:31 41.88883 98.45725 32037 ft 434 kts 274°
2026-05-04 10:32 41.88894 98.17615 32050 ft 431 kts 273°
2026-05-04 10:33 41.88885 98.09598 32051 ft 431 kts 273°
2026-05-04 10:33 41.88871 98.01466 32053 ft 444 kts 273°
2026-05-04 10:34 41.88849 97.93216 32054 ft 441 kts 273°
2026-05-04 10:34 41.88821 97.85009 32057 ft 443 kts 273°
2026-05-04 10:35 41.88788 97.76789 32062 ft 441 kts 273°
2026-05-04 10:35 41.88749 97.68618 32053 ft 441 kts 274°
2026-05-04 10:36 41.88705 97.60398 32052 ft 441 kts 273°
2026-05-04 10:36 41.88654 97.52180 32058 ft 441 kts 273°
2026-05-04 10:37 41.88598 97.44024 32072 ft 442 kts 273°
2026-05-04 10:37 41.88536 97.35773 32079 ft 442 kts 273°
2026-05-04 10:39 41.88273 97.07130 32111 ft 441 kts 272°
2026-05-04 10:40 41.88184 96.98911 32126 ft 440 kts 272°
2026-05-04 10:40 41.88090 96.90707 32129 ft 441 kts 272°
2026-05-04 10:41 41.87990 96.82510 32133 ft 439 kts 272°
2026-05-04 10:41 41.88316 96.74428 32135 ft 437 kts 282°
2026-05-04 10:42 41.90136 96.66708 32147 ft 433 kts 293°
2026-05-04 10:42 41.92443 96.59287 32150 ft 433 kts 293°
2026-05-04 10:43 41.94759 96.51823 32151 ft 435 kts 293°
2026-05-04 10:45 42.03959 96.21968 32175 ft 433 kts 292°
2026-05-04 10:45 42.06258 96.14455 32183 ft 432 kts 292°
2026-05-04 10:46 42.08525 96.07027 32173 ft 433 kts 292°
2026-05-04 10:46 42.10810 95.99515 32188 ft 433 kts 292°
2026-05-04 10:47 42.13079 95.92037 32184 ft 431 kts 292°
2026-05-04 10:47 42.15329 95.84600 32150 ft 433 kts 292°
2026-05-04 10:49 42.24334 95.54617 32113 ft 434 kts 292°
2026-05-04 10:50 42.26584 95.47074 32088 ft 434 kts 291°
2026-05-04 10:52 42.35502 95.16947 32047 ft 434 kts 290°
2026-05-04 10:52 42.37732 95.09360 32038 ft 433 kts 291°
2026-05-04 10:54 42.46570 94.79061 32013 ft 434 kts 290°
2026-05-04 10:56 42.55351 94.48598 32014 ft 435 kts 290°
2026-05-04 10:57 42.57532 94.40976 32008 ft 435 kts 290°
2026-05-04 10:57 42.59704 94.33360 32020 ft 435 kts 290°
2026-05-04 10:58 42.61883 94.25697 32011 ft 436 kts 290°
2026-05-04 10:58 42.64050 94.18053 32004 ft 436 kts 290°
2026-05-04 10:59 42.66221 94.10375 31999 ft 436 kts 290°
2026-05-04 10:59 42.68374 94.02731 31999 ft 434 kts 290°
2026-05-04 11:00 42.70535 93.95039 32000 ft 436 kts 290°
2026-05-04 11:01 42.78061 93.68063 33849 ft 430 kts 289°
2026-05-04 11:02 42.79108 93.64288 33866 ft 427 kts 289°
2026-05-04 11:05 42.94592 93.07753 33795 ft 429 kts 288°
2026-05-04 11:06 42.96644 93.00164 33780 ft 428 kts 288°
2026-05-04 11:06 42.98696 92.92547 33773 ft 428 kts 288°
2026-05-04 11:10 43.12923 92.39087 33779 ft 430 kts 288°
2026-05-04 11:12 43.20954 92.08374 33840 ft 429 kts 286°
2026-05-04 11:12 43.22935 92.00738 33839 ft 430 kts 286°
2026-05-04 11:13 43.24937 91.92992 33847 ft 432 kts 286°
2026-05-04 11:13 43.26925 91.85282 33859 ft 431 kts 286°
2026-05-04 11:14 43.27256 91.83995 33868 ft 431 kts 286°
2026-05-04 11:16 43.36826 91.46484 33859 ft 435 kts 286°
2026-05-04 11:16 43.38810 91.38635 33886 ft 434 kts 286°
2026-05-04 11:17 43.40754 91.30817 33893 ft 433 kts 284°
2026-05-04 11:19 43.47828 90.99135 33989 ft 436 kts 283°
2026-05-04 11:19 43.49597 90.91169 34003 ft 435 kts 283°
2026-05-04 11:20 43.51359 90.83212 34005 ft 437 kts 283°
2026-05-04 11:20 43.53119 90.75235 34006 ft 435 kts 283°
2026-05-04 11:22 43.60080 90.43388 34019 ft 436 kts 283°
2026-05-04 11:23 43.61814 90.35381 34018 ft 436 kts 283°
2026-05-04 11:25 43.67835 90.07342 34006 ft 437 kts 283°
2026-05-04 11:25 43.69653 89.99348 33981 ft 438 kts 284°
2026-05-04 11:27 43.77836 89.63229 33931 ft 441 kts 283°
2026-05-04 11:28 43.79643 89.55157 33944 ft 441 kts 283°
2026-05-04 11:28 43.81465 89.47118 33947 ft 440 kts 284°
2026-05-04 11:29 43.83343 89.39040 33948 ft 442 kts 284°
2026-05-04 11:29 43.85211 89.30960 33953 ft 441 kts 283°
2026-05-04 11:33 43.98284 88.74211 34019 ft 445 kts 286°
2026-05-04 11:33 44.00347 88.66180 33997 ft 446 kts 285°
2026-05-04 11:34 44.02409 88.58082 34008 ft 445 kts 285°
2026-05-04 11:34 44.04461 88.49973 34006 ft 445 kts 285°
2026-05-04 11:35 44.06492 88.41911 34003 ft 447 kts 285°
2026-05-04 11:35 44.08524 88.33810 34006 ft 445 kts 285°
2026-05-04 11:36 44.10559 88.25664 34004 ft 446 kts 285°
2026-05-04 11:36 44.12579 88.17549 33991 ft 444 kts 285°
2026-05-04 11:37 44.14599 88.09404 33975 ft 446 kts 285°
2026-05-04 11:37 44.16640 88.01289 33959 ft 448 kts 288°
2026-05-04 11:38 44.19750 87.93761 33938 ft 456 kts 301°
2026-05-04 11:38 44.23570 87.86716 33925 ft 457 kts 302°
2026-05-04 11:39 44.27379 87.79680 33914 ft 456 kts 302°
2026-05-04 11:41 44.40778 87.55068 33890 ft 454 kts 302°
2026-05-04 11:41 44.44641 87.48027 33881 ft 456 kts 303°
2026-05-04 11:42 44.48453 87.41062 33880 ft 453 kts 302°
2026-05-04 11:42 44.52284 87.34039 33878 ft 454 kts 302°
2026-05-04 11:43 44.56089 87.27076 33877 ft 452 kts 303°
2026-05-04 11:43 44.60072 87.20233 33873 ft 454 kts 304°
2026-05-04 11:44 44.64040 87.13416 33862 ft 452 kts 303°
2026-05-04 11:44 44.67999 87.06584 33860 ft 454 kts 303°
2026-05-04 11:45 44.71958 86.99729 33857 ft 451 kts 303°
2026-05-04 11:45 44.75925 86.92858 33847 ft 452 kts 304°
2026-05-04 11:46 44.79852 86.86051 33839 ft 450 kts 304°
2026-05-04 11:46 44.83780 86.79219 33840 ft 452 kts 303°
2026-05-04 11:47 44.87689 86.72270 33839 ft 450 kts 303°
2026-05-04 11:47 44.91562 86.65353 33839 ft 452 kts 303°
2026-05-04 11:48 44.95441 86.58414 33834 ft 452 kts 303°
2026-05-04 11:48 44.99325 86.51452 33821 ft 451 kts 303°
2026-05-04 11:49 45.03202 86.44485 33817 ft 453 kts 303°
2026-05-04 11:49 45.07053 86.37550 33819 ft 451 kts 303°
2026-05-04 11:50 45.10929 86.30552 33819 ft 451 kts 302°
2026-05-04 11:50 45.14785 86.23573 33819 ft 450 kts 302°
2026-05-04 11:51 45.18613 86.16629 33811 ft 451 kts 302°
2026-05-04 11:51 45.22463 86.09627 33811 ft 450 kts 302°
2026-05-04 11:52 45.26282 86.02664 33808 ft 451 kts 302°
2026-05-04 11:52 45.30107 85.95673 33805 ft 450 kts 302°
2026-05-04 11:53 45.33945 85.88641 33807 ft 450 kts 302°
2026-05-04 11:53 45.37771 85.81615 33816 ft 450 kts 302°
2026-05-04 11:55 45.52988 85.53492 33842 ft 450 kts 302°
2026-05-04 11:56 45.56759 85.46479 33837 ft 449 kts 303°
2026-05-04 11:56 45.60571 85.39373 33837 ft 450 kts 303°
2026-05-04 11:57 45.64349 85.32313 33849 ft 449 kts 302°
2026-05-04 11:57 45.68119 85.25248 33846 ft 449 kts 302°
2026-05-04 11:58 45.71906 85.18159 33865 ft 448 kts 302°
2026-05-04 11:58 45.75684 85.11108 33885 ft 448 kts 302°
2026-05-04 11:59 45.79446 85.04071 33915 ft 447 kts 302°
2026-05-04 11:59 45.83218 84.96993 33921 ft 447 kts 302°
2026-05-04 12:00 45.86991 84.89896 33945 ft 447 kts 302°
2026-05-04 12:00 45.90743 84.82822 33958 ft 447 kts 302°
2026-05-04 12:01 45.94519 84.75680 33965 ft 448 kts 302°
2026-05-04 12:02 46.07599 84.50812 34029 ft 446 kts 302°
2026-05-04 12:03 46.11334 84.43668 34036 ft 446 kts 302°
2026-05-04 12:03 46.15034 84.36574 34043 ft 447 kts 302°
2026-05-04 12:04 46.18763 84.29407 34057 ft 445 kts 301°
2026-05-04 12:04 46.22454 84.22292 34063 ft 446 kts 301°
2026-05-04 12:05 46.26157 84.15141 34063 ft 443 kts 301°
2026-05-04 12:05 46.29837 84.07976 34071 ft 446 kts 301°
2026-05-04 12:06 46.33483 84.00851 34080 ft 443 kts 301°
2026-05-04 12:06 46.37157 83.93651 34082 ft 446 kts 301°
2026-05-04 12:07 46.40837 83.86424 34077 ft 444 kts 301°
2026-05-04 12:07 46.44474 83.79262 34063 ft 445 kts 301°
2026-05-04 12:08 46.48116 83.72074 34055 ft 443 kts 301°
2026-05-04 12:08 46.51763 83.64857 34042 ft 441 kts 301°
2026-05-04 12:09 46.55380 83.57677 34051 ft 444 kts 301°
2026-05-04 12:09 46.58984 83.50510 34052 ft 442 kts 301°
2026-05-04 12:10 46.62626 83.43248 34052 ft 441 kts 301°
2026-05-04 12:10 46.66198 83.36102 34056 ft 439 kts 300°
2026-05-04 12:11 46.69446 83.28686 34069 ft 437 kts 296°
2026-05-04 12:11 46.72667 83.21147 34071 ft 436 kts 296°
2026-05-04 12:12 46.75856 83.13705 34062 ft 438 kts 296°
2026-05-04 12:12 46.79075 83.06200 34066 ft 436 kts 296°
2026-05-04 12:14 46.87971 82.74471 34048 ft 426 kts 276°
2026-05-04 12:15 46.88841 82.65991 34042 ft 424 kts 276°
2026-05-04 12:15 46.89706 82.57478 34031 ft 425 kts 276°
2026-05-04 12:16 46.90563 82.48955 34028 ft 424 kts 276°
2026-05-04 12:16 46.91412 82.40454 34024 ft 424 kts 276°
2026-05-04 12:17 46.92252 82.31966 34034 ft 423 kts 275°
2026-05-04 12:17 46.93088 82.23450 34027 ft 424 kts 275°
2026-05-04 12:18 46.93912 82.14984 34014 ft 424 kts 275°
2026-05-04 12:18 46.94741 82.06413 34007 ft 424 kts 276°
2026-05-04 12:19 46.95553 81.97939 33996 ft 424 kts 275°
2026-05-04 12:19 46.96364 81.89396 34003 ft 424 kts 275°
2026-05-04 12:20 46.97161 81.80872 33986 ft 424 kts 275°
2026-05-04 12:20 46.97955 81.72311 33979 ft 425 kts 275°
2026-05-04 12:21 46.98740 81.63773 33988 ft 427 kts 275°
2026-05-04 12:21 46.99523 81.55191 33988 ft 426 kts 275°
2026-05-04 12:22 47.00301 81.46596 33979 ft 426 kts 275°
2026-05-04 12:22 47.01066 81.38055 33974 ft 426 kts 275°
2026-05-04 12:23 47.01831 81.29459 34005 ft 428 kts 275°
2026-05-04 12:23 47.02591 81.20834 33988 ft 428 kts 275°
2026-05-04 12:24 47.03344 81.12215 33989 ft 429 kts 275°
2026-05-04 12:24 47.04096 81.03527 34001 ft 430 kts 275°
2026-05-04 12:25 47.04841 80.94846 34007 ft 433 kts 275°
2026-05-04 12:25 47.05576 80.86201 34017 ft 431 kts 275°
2026-05-04 12:26 47.06314 80.77447 34008 ft 432 kts 275°
2026-05-04 12:26 47.07038 80.68782 34037 ft 433 kts 275°
2026-05-04 12:27 47.07764 80.60005 34072 ft 432 kts 275°
2026-05-04 12:27 47.08478 80.51289 34011 ft 433 kts 275°
2026-05-04 12:28 47.09188 80.42547 34029 ft 433 kts 276°
2026-05-04 12:28 47.09890 80.33805 34058 ft 434 kts 275°
2026-05-04 12:29 47.10588 80.25047 34064 ft 435 kts 275°
2026-05-04 12:29 47.11283 80.16228 34080 ft 437 kts 275°
2026-05-04 12:30 47.11972 80.07389 34096 ft 437 kts 275°
2026-05-04 12:30 47.12653 79.98571 34096 ft 438 kts 275°
2026-05-04 12:31 47.13331 79.89719 34082 ft 437 kts 275°
2026-05-04 12:31 47.14012 79.80830 34095 ft 439 kts 276°
2026-05-04 12:32 47.15042 79.67507 34094 ft 438 kts 276°
2026-05-04 12:33 47.15720 79.58607 34084 ft 440 kts 276°
2026-05-04 12:33 47.16386 79.49759 34091 ft 442 kts 276°
2026-05-04 12:34 47.17055 79.40785 34093 ft 440 kts 276°
2026-05-04 12:34 47.17712 79.31869 34105 ft 443 kts 276°
2026-05-04 12:35 47.18366 79.22907 34105 ft 443 kts 276°
2026-05-04 12:35 47.19013 79.13934 34114 ft 446 kts 276°
2026-05-04 12:36 47.19640 79.04878 34103 ft 443 kts 276°
2026-05-04 12:36 47.20250 78.95947 34114 ft 443 kts 276°
2026-05-04 12:37 47.20858 78.86938 34115 ft 443 kts 276°
2026-05-04 12:37 47.21458 78.77964 34112 ft 443 kts 276°
2026-05-04 12:38 47.22050 78.68991 34115 ft 443 kts 276°
2026-05-04 12:38 47.22636 78.59995 34113 ft 443 kts 276°
2026-05-04 12:39 47.23214 78.51041 34125 ft 441 kts 276°
2026-05-04 12:39 47.23783 78.42097 34117 ft 442 kts 276°
2026-05-04 12:40 47.24347 78.33113 34131 ft 441 kts 276°
2026-05-04 12:40 47.24905 78.24124 34139 ft 441 kts 276°
2026-05-04 12:41 47.25452 78.15184 34136 ft 442 kts 276°
2026-05-04 12:41 47.25996 78.06194 34131 ft 442 kts 276°
2026-05-04 12:42 47.26532 77.97223 34141 ft 441 kts 276°
2026-05-04 12:42 47.27057 77.88296 34144 ft 442 kts 276°
2026-05-04 12:43 47.27580 77.79297 34135 ft 442 kts 276°
2026-05-04 12:43 47.28095 77.70301 34133 ft 442 kts 276°
2026-05-04 12:44 47.28606 77.61266 34144 ft 443 kts 276°
2026-05-04 12:44 47.29105 77.52302 34135 ft 443 kts 276°
2026-05-04 12:45 47.29600 77.43295 34141 ft 443 kts 276°
2026-05-04 12:45 47.30088 77.34278 34140 ft 444 kts 275°
2026-05-04 12:46 47.30570 77.25229 34150 ft 443 kts 275°
2026-05-04 12:46 47.31044 77.16222 34140 ft 444 kts 275°
2026-05-04 12:47 47.31512 77.07168 34148 ft 443 kts 275°
2026-05-04 12:47 47.32266 76.98174 34142 ft 445 kts 280°
2026-05-04 12:48 47.33223 76.89232 34138 ft 445 kts 279°
2026-05-04 12:48 47.34157 76.80228 34137 ft 445 kts 279°
2026-05-04 12:49 47.35067 76.71265 34139 ft 446 kts 279°
2026-05-04 12:49 47.35975 76.62189 34136 ft 446 kts 279°
2026-05-04 12:50 47.36865 76.53193 34135 ft 447 kts 279°
2026-05-04 12:50 47.37753 76.44120 34139 ft 447 kts 279°
2026-05-04 12:51 47.38624 76.35137 34137 ft 448 kts 279°
2026-05-04 12:51 47.39498 76.26038 34144 ft 449 kts 279°
2026-05-04 12:52 47.40362 76.16972 34143 ft 449 kts 278°
2026-05-04 12:52 47.41222 76.07872 34142 ft 450 kts 278°
2026-05-04 12:53 47.42073 75.98782 34140 ft 449 kts 278°
2026-05-04 12:53 47.42916 75.89691 34144 ft 451 kts 278°
2026-05-04 12:54 47.43762 75.80496 34147 ft 450 kts 279°
2026-05-04 12:54 47.44590 75.71403 34146 ft 452 kts 279°
2026-05-04 12:55 47.45423 75.62180 34144 ft 452 kts 279°
2026-05-04 12:55 47.46238 75.53075 34147 ft 452 kts 279°
2026-05-04 12:56 47.47052 75.43900 34147 ft 452 kts 278°
2026-05-04 12:56 47.47860 75.34698 34147 ft 453 kts 278°
2026-05-04 12:57 47.48662 75.25478 34150 ft 453 kts 278°
2026-05-04 12:57 47.49456 75.16271 34149 ft 454 kts 278°
2026-05-04 12:58 47.50248 75.06995 34148 ft 454 kts 278°
2026-05-04 12:58 47.51026 74.97786 34152 ft 455 kts 278°
2026-05-04 12:59 47.51800 74.88542 34167 ft 457 kts 278°
2026-05-04 12:59 47.52569 74.79256 34176 ft 455 kts 278°
2026-05-04 13:00 47.53331 74.69964 34175 ft 454 kts 278°
2026-05-04 13:00 47.54085 74.60686 34169 ft 457 kts 278°
2026-05-04 13:01 47.54834 74.51366 34162 ft 457 kts 278°
2026-05-04 13:01 47.55573 74.42074 34166 ft 459 kts 278°
2026-05-04 13:02 47.56311 74.32694 34159 ft 460 kts 278°
2026-05-04 13:02 47.57043 74.23298 34165 ft 460 kts 278°
2026-05-04 13:03 47.57763 74.13951 34160 ft 461 kts 278°
2026-05-04 13:03 47.58482 74.04517 34167 ft 462 kts 278°
2026-05-04 13:04 47.59195 73.95052 34160 ft 463 kts 278°
2026-05-04 13:04 47.59896 73.85643 34158 ft 462 kts 278°
2026-05-04 13:05 47.60589 73.76241 34159 ft 463 kts 278°
2026-05-04 13:05 47.61277 73.66794 34160 ft 463 kts 278°
2026-05-04 13:06 47.61962 73.57281 34160 ft 463 kts 278°
2026-05-04 13:06 47.62633 73.47845 34162 ft 465 kts 278°
2026-05-04 13:07 47.63300 73.38359 34163 ft 464 kts 278°
2026-05-04 13:07 47.63957 73.28909 34168 ft 464 kts 277°
2026-05-04 13:08 47.64610 73.19394 34169 ft 463 kts 277°
2026-05-04 13:08 47.65252 73.09916 34168 ft 464 kts 278°
2026-05-04 13:09 47.65886 73.00447 34168 ft 465 kts 277°
2026-05-04 13:09 47.66515 72.90944 34168 ft 466 kts 277°
2026-05-04 13:10 47.67138 72.81391 34167 ft 466 kts 277°
2026-05-04 13:10 47.67750 72.71883 34168 ft 466 kts 278°
2026-05-04 13:11 47.68354 72.62401 34170 ft 465 kts 277°
2026-05-04 13:11 47.68954 72.52838 34173 ft 466 kts 277°
2026-05-04 13:12 47.69544 72.43304 34171 ft 465 kts 277°
2026-05-04 13:12 47.70126 72.33772 34171 ft 466 kts 277°
2026-05-04 13:13 47.70703 72.24186 34173 ft 467 kts 277°
2026-05-04 13:13 47.71269 72.14657 34167 ft 467 kts 277°
2026-05-04 13:14 47.71830 72.05068 34165 ft 468 kts 277°
2026-05-04 13:14 47.72382 71.95505 34161 ft 466 kts 277°
2026-05-04 13:15 47.72927 71.85905 34160 ft 466 kts 277°
2026-05-04 13:15 47.73403 71.76344 34156 ft 467 kts 276°
2026-05-04 13:16 47.73796 71.66763 34156 ft 469 kts 276°
2026-05-04 13:16 47.74185 71.57156 34152 ft 469 kts 276°
2026-05-04 13:17 47.74571 71.47510 34149 ft 468 kts 276°
2026-05-04 13:17 47.74948 71.37901 34146 ft 468 kts 276°
2026-05-04 13:18 47.75321 71.28224 34150 ft 469 kts 275°
2026-05-04 13:18 47.75682 71.18638 34147 ft 467 kts 275°
2026-05-04 13:19 47.76039 71.08979 34148 ft 468 kts 275°
2026-05-04 13:19 47.76388 70.99313 34145 ft 470 kts 275°
2026-05-04 13:20 47.76728 70.89687 34154 ft 469 kts 275°
2026-05-04 13:20 47.77060 70.80046 34147 ft 471 kts 275°
2026-05-04 13:21 47.77384 70.70370 34136 ft 470 kts 275°
2026-05-04 13:21 47.77702 70.60672 34141 ft 469 kts 275°
2026-05-04 13:22 47.78006 70.51063 34136 ft 468 kts 275°
2026-05-04 13:22 47.78303 70.41423 34137 ft 469 kts 275°
2026-05-04 13:23 47.78594 70.31748 34129 ft 469 kts 274°
2026-05-04 13:23 47.78875 70.22121 34131 ft 469 kts 274°
2026-05-04 13:24 47.79148 70.12471 34117 ft 469 kts 274°
2026-05-04 13:24 47.79413 70.02841 34117 ft 468 kts 274°
2026-05-04 13:25 47.79796 69.88354 34109 ft 467 kts 274°
2026-05-04 13:25 47.80039 69.78763 34111 ft 467 kts 274°
2026-05-04 13:26 47.80276 69.69138 34106 ft 467 kts 274°
2026-05-04 13:26 47.80504 69.59515 34112 ft 466 kts 274°
2026-05-04 13:27 47.80725 69.49864 34111 ft 467 kts 274°
2026-05-04 13:27 47.80935 69.40308 34112 ft 465 kts 274°
2026-05-04 13:28 47.81139 69.30685 34110 ft 467 kts 273°
2026-05-04 13:28 47.81335 69.21107 34113 ft 467 kts 273°
2026-05-04 13:29 47.81522 69.11485 34113 ft 466 kts 273°
2026-05-04 13:29 47.81702 69.01879 34105 ft 464 kts 273°
2026-05-04 13:30 47.81873 68.92351 34110 ft 464 kts 273°
2026-05-04 13:30 47.81998 68.82774 34105 ft 464 kts 269°
2026-05-04 13:31 47.81294 68.73283 34110 ft 466 kts 265°
2026-05-04 13:31 47.80438 68.63737 34107 ft 466 kts 264°
2026-05-04 13:32 47.79572 68.54215 34109 ft 466 kts 264°
2026-05-04 13:32 47.78702 68.44753 34111 ft 465 kts 264°
2026-05-04 13:33 47.77817 68.35236 34112 ft 465 kts 264°
2026-05-04 13:33 47.76930 68.25775 34110 ft 466 kts 263°
2026-05-04 13:34 47.76025 68.16227 34105 ft 465 kts 263°
2026-05-04 13:34 47.75124 68.06807 34103 ft 465 kts 263°
2026-05-04 13:35 47.73745 67.92542 34102 ft 464 kts 263°
2026-05-04 13:36 47.72825 67.83130 34102 ft 465 kts 263°
2026-05-04 13:36 47.71865 67.73659 34092 ft 464 kts 260°
2026-05-04 13:37 47.70459 67.64322 34104 ft 465 kts 259°
2026-05-04 13:37 47.69035 67.55010 34098 ft 464 kts 259°
2026-05-04 13:38 47.67617 67.45687 34102 ft 465 kts 259°
2026-05-04 13:38 47.66199 67.36357 34098 ft 465 kts 259°
2026-05-04 13:39 47.64781 67.27046 34102 ft 465 kts 258°
2026-05-04 13:39 47.63355 67.17722 34105 ft 465 kts 258°
2026-05-04 13:40 47.61922 67.08401 34106 ft 466 kts 258°
2026-05-04 13:40 47.60487 66.99116 34107 ft 465 kts 258°
2026-05-04 13:41 47.59037 66.89785 34105 ft 464 kts 258°
2026-05-04 13:41 47.57593 66.80549 34107 ft 464 kts 258°
2026-05-04 13:42 47.55374 66.66589 34100 ft 465 kts 257°
2026-05-04 13:42 47.53857 66.57381 34099 ft 464 kts 257°
2026-05-04 13:43 47.52320 66.48103 34102 ft 465 kts 257°
2026-05-04 13:43 47.50789 66.38895 34095 ft 465 kts 257°
2026-05-04 13:44 47.49239 66.29623 34091 ft 466 kts 256°
2026-05-04 13:44 47.47684 66.20373 34090 ft 465 kts 256°
2026-05-04 13:45 47.46124 66.11135 34078 ft 465 kts 256°
2026-05-04 13:45 47.44553 66.01879 34081 ft 465 kts 256°
2026-05-04 13:46 47.42977 65.92651 34076 ft 465 kts 256°
2026-05-04 13:46 47.41399 65.83450 34070 ft 466 kts 256°
2026-05-04 13:47 47.39867 65.74161 34065 ft 466 kts 256°
2026-05-04 13:47 47.38350 65.64966 34060 ft 467 kts 256°
2026-05-04 13:48 47.36808 65.55684 34055 ft 466 kts 256°
2026-05-04 13:48 47.35257 65.46407 34045 ft 466 kts 257°
2026-05-04 13:49 47.33712 65.37219 34042 ft 465 kts 257°
2026-05-04 13:49 47.32147 65.27960 34037 ft 465 kts 256°
2026-05-04 13:50 47.30590 65.18803 34041 ft 465 kts 256°
2026-05-04 13:50 47.29006 65.09536 34035 ft 465 kts 256°
2026-05-04 13:51 47.27425 65.00335 34031 ft 466 kts 256°
2026-05-04 13:51 47.25835 64.91141 34028 ft 466 kts 256°
2026-05-04 13:52 47.23429 64.77321 34025 ft 467 kts 256°
2026-05-04 13:53 47.21820 64.68143 34025 ft 467 kts 256°
2026-05-04 13:53 47.20194 64.58913 34026 ft 466 kts 256°
2026-05-04 13:54 47.17757 64.45132 34024 ft 466 kts 256°
2026-05-04 13:55 47.15308 64.31358 34026 ft 467 kts 255°
2026-05-04 13:55 47.12840 64.17585 34026 ft 467 kts 255°
2026-05-04 13:56 47.11180 64.08375 34026 ft 467 kts 255°
2026-05-04 13:57 47.08680 63.94599 34024 ft 467 kts 255°
2026-05-04 13:58 47.05332 63.76313 34022 ft 467 kts 255°
2026-05-04 13:58 47.02798 63.62589 34018 ft 466 kts 255°
2026-05-04 13:59 47.01100 63.53454 34012 ft 466 kts 255°
2026-05-04 14:00 46.98535 63.39732 34011 ft 466 kts 255°
2026-05-04 14:00 46.95960 63.26060 34008 ft 466 kts 254°
2026-05-04 14:01 46.94243 63.16999 34006 ft 466 kts 254°
2026-05-04 14:02 46.91645 63.03364 34005 ft 465 kts 254°
2026-05-04 14:02 46.89899 62.94264 34003 ft 465 kts 254°
2026-05-04 14:03 46.88153 62.85200 33997 ft 466 kts 254°
2026-05-04 14:03 46.86405 62.76170 34001 ft 466 kts 254°
2026-05-04 14:04 46.83756 62.62566 33997 ft 466 kts 254°
2026-05-04 14:04 46.81986 62.53529 34001 ft 465 kts 254°
2026-05-04 14:05 46.79318 62.39979 33999 ft 465 kts 254°
2026-05-04 14:06 46.77520 62.30901 34003 ft 465 kts 253°
2026-05-04 14:06 46.75723 62.21871 34001 ft 466 kts 253°
2026-05-04 14:07 46.73922 62.12859 34000 ft 466 kts 253°
2026-05-04 14:07 46.72109 62.03830 34000 ft 465 kts 253°
2026-05-04 14:08 46.70290 61.94813 34000 ft 465 kts 253°
2026-05-04 14:08 46.68466 61.85815 33999 ft 465 kts 253°
2026-05-04 14:09 46.65719 61.72339 33998 ft 465 kts 253°
2026-05-04 14:10 46.62955 61.58867 33999 ft 465 kts 253°
2026-05-04 14:10 46.61104 61.49896 34000 ft 465 kts 253°
2026-05-04 14:11 46.59247 61.40940 34000 ft 465 kts 253°
2026-05-04 14:11 46.56445 61.27494 34005 ft 464 kts 252°
2026-05-04 14:12 46.54547 61.18439 34604 ft 469 kts 252°
2026-05-04 14:12 46.52685 61.09594 35817 ft 457 kts 252°
2026-05-04 14:13 46.51760 61.05214 35983 ft 453 kts 252°
2026-05-04 14:13 46.49926 60.96560 36010 ft 447 kts 252°
2026-05-04 14:14 46.48101 60.87983 36012 ft 448 kts 252°
2026-05-04 14:14 46.45348 60.75109 36006 ft 447 kts 252°
2026-05-04 14:15 46.41641 60.57906 36004 ft 446 kts 252°
2026-05-04 14:16 46.38848 60.45035 35995 ft 447 kts 252°
2026-05-04 14:17 46.36050 60.32223 35991 ft 446 kts 252°
2026-05-04 14:18 46.33241 60.19433 36011 ft 447 kts 252°
2026-05-04 14:19 46.29467 60.02377 36000 ft 447 kts 251°
2026-05-04 14:19 46.27558 59.93802 36001 ft 447 kts 252°
2026-05-04 14:20 46.25665 59.85335 36014 ft 446 kts 252°
2026-05-04 14:20 46.23756 59.76829 35999 ft 446 kts 252°
2026-05-04 14:21 46.20872 59.64086 35993 ft 447 kts 252°
2026-05-04 14:21 46.18935 59.55598 35980 ft 447 kts 251°
2026-05-04 14:22 46.16996 59.47133 35979 ft 447 kts 252°
2026-05-04 14:22 46.15039 59.38624 35986 ft 447 kts 252°
2026-05-04 14:23 46.12106 59.25931 35992 ft 447 kts 251°
2026-05-04 14:24 46.10144 59.17483 35963 ft 447 kts 251°
2026-05-04 14:24 46.08180 59.09057 35955 ft 446 kts 251°
2026-05-04 14:25 46.06199 59.00590 35953 ft 448 kts 251°
2026-05-04 14:25 46.03217 58.87906 35959 ft 447 kts 251°
2026-05-04 14:26 46.01225 58.79475 35950 ft 447 kts 251°
2026-05-04 14:26 45.99229 58.71059 35950 ft 448 kts 251°
2026-05-04 14:27 45.97213 58.62593 35947 ft 448 kts 251°
2026-05-04 14:27 45.95190 58.54130 35956 ft 448 kts 251°
2026-05-04 14:28 45.93171 58.45713 35955 ft 449 kts 251°
2026-05-04 14:28 45.91134 58.37253 35948 ft 450 kts 251°
2026-05-04 14:29 45.87051 58.20394 35951 ft 450 kts 250°
2026-05-04 14:30 45.84999 58.11968 35949 ft 449 kts 250°
2026-05-04 14:31 45.81907 57.99330 35939 ft 449 kts 250°
2026-05-04 14:32 45.77772 57.82542 35929 ft 448 kts 250°
2026-05-04 14:32 45.75684 57.74113 35931 ft 448 kts 250°
2026-05-04 14:33 45.73609 57.65769 35918 ft 449 kts 250°
2026-05-04 14:33 45.71524 57.57412 35924 ft 449 kts 250°
2026-05-04 14:34 45.69432 57.49057 35913 ft 447 kts 250°
2026-05-04 14:34 45.67320 57.40657 35918 ft 448 kts 250°
2026-05-04 14:35 45.65222 57.32342 35916 ft 446 kts 250°
2026-05-04 14:35 45.63107 57.23988 35911 ft 448 kts 250°
2026-05-04 14:36 45.61002 57.15704 35904 ft 447 kts 250°
2026-05-04 14:36 45.58880 57.07383 35904 ft 448 kts 250°
2026-05-04 14:37 45.56758 56.99093 35900 ft 447 kts 250°
2026-05-04 14:37 45.54621 56.90776 35890 ft 447 kts 250°
2026-05-04 14:38 45.52490 56.82518 36195 ft 438 kts 250°
2026-05-04 14:38 45.51458 56.78560 36829 ft 431 kts 249°
2026-05-04 14:38 45.50367 56.74550 36657 ft 440 kts 248°
2026-05-04 14:38 45.49257 56.70408 36387 ft 445 kts 250°
2026-05-04 14:39 45.48219 56.66319 36368 ft 444 kts 250°
2026-05-04 14:39 45.46101 56.58048 36363 ft 445 kts 250°
2026-05-04 14:40 45.42896 56.45707 36360 ft 444 kts 250°
2026-05-04 14:40 45.40760 56.37553 36354 ft 443 kts 250°
2026-05-04 14:41 45.38602 56.29357 36357 ft 443 kts 249°
2026-05-04 14:42 45.34261 56.12970 36354 ft 444 kts 249°
2026-05-04 14:42 45.32095 56.04841 36359 ft 443 kts 249°
2026-05-04 14:43 45.29906 55.96655 36341 ft 444 kts 249°
2026-05-04 14:43 45.27723 55.88515 36338 ft 444 kts 249°
2026-05-04 14:44 45.25532 55.80378 36340 ft 444 kts 249°
2026-05-04 14:44 45.23331 55.72232 36339 ft 442 kts 249°
2026-05-04 14:45 45.21130 55.64109 36332 ft 443 kts 249°
2026-05-04 14:45 45.18921 55.55987 36338 ft 444 kts 249°
2026-05-04 14:46 45.16691 55.47818 36337 ft 443 kts 249°
2026-05-04 14:46 45.14469 55.39705 36322 ft 444 kts 249°
2026-05-04 14:47 45.12237 55.31582 36326 ft 445 kts 248°
2026-05-04 14:47 45.09975 55.23510 36315 ft 444 kts 244°
2026-05-04 14:48 45.06617 55.16202 36319 ft 445 kts 228°
2026-05-04 14:48 45.02217 55.10130 36319 ft 444 kts 224°
2026-05-04 14:49 44.97704 55.04181 36317 ft 445 kts 223°
2026-05-04 14:49 44.93168 54.98263 36324 ft 444 kts 223°
2026-05-04 14:50 44.88643 54.92395 36336 ft 445 kts 223°
2026-05-04 14:50 44.84098 54.86527 36337 ft 444 kts 223°
2026-05-04 14:51 44.79559 54.80686 36332 ft 443 kts 223°
2026-05-04 14:51 44.74992 54.74825 36332 ft 444 kts 223°
2026-05-04 14:52 44.70446 54.69006 36333 ft 443 kts 223°
2026-05-04 14:52 44.66034 54.63015 36334 ft 443 kts 231°
2026-05-04 14:53 44.62440 54.56033 36330 ft 443 kts 235°
2026-05-04 14:53 44.58939 54.48978 36332 ft 443 kts 235°
2026-05-04 14:54 44.55410 54.41896 36328 ft 442 kts 235°
2026-05-04 14:54 44.51905 54.34883 36326 ft 442 kts 234°
2026-05-04 14:55 44.48381 54.27850 36323 ft 440 kts 234°
2026-05-04 14:55 44.44862 54.20846 36330 ft 441 kts 234°
2026-05-04 14:56 44.41356 54.13886 36330 ft 441 kts 234°
2026-05-04 14:56 44.37806 54.06858 36333 ft 442 kts 234°
2026-05-04 14:57 44.34283 53.99898 36335 ft 442 kts 234°
2026-05-04 14:57 44.30746 53.92926 36335 ft 441 kts 234°
2026-05-04 14:58 44.27190 53.85936 36334 ft 441 kts 234°
2026-05-04 14:58 44.23643 53.78979 36334 ft 439 kts 234°
2026-05-04 14:59 44.20105 53.72057 36341 ft 439 kts 234°
2026-05-04 15:00 44.14819 53.61745 36340 ft 438 kts 234°
2026-05-04 15:00 44.11259 53.54822 36334 ft 439 kts 234°
2026-05-04 15:01 44.05948 53.44522 36326 ft 440 kts 234°
2026-05-04 15:01 44.02378 53.37619 36324 ft 439 kts 234°
2026-05-04 15:02 43.98827 53.30770 36316 ft 439 kts 234°
2026-05-04 15:02 43.95267 53.23920 36321 ft 437 kts 234°
2026-05-04 15:03 43.91736 53.17137 36330 ft 437 kts 234°
2026-05-04 15:03 43.88185 53.10337 36339 ft 436 kts 234°
2026-05-04 15:04 43.84625 53.03538 36341 ft 437 kts 234°
2026-05-04 15:04 43.81069 52.96762 36343 ft 436 kts 234°
2026-05-04 15:05 43.77496 52.89970 36345 ft 437 kts 234°
2026-05-04 15:05 43.73939 52.83223 36347 ft 436 kts 234°
2026-05-04 15:06 43.70379 52.76486 36349 ft 435 kts 234°
2026-05-04 15:07 43.65040 52.66414 36337 ft 435 kts 234°
2026-05-04 15:07 43.61447 52.59681 36337 ft 436 kts 234°
2026-05-04 15:08 43.57856 52.52967 36339 ft 436 kts 234°
2026-05-04 15:08 43.54262 52.46261 36336 ft 435 kts 234°
2026-05-04 15:09 43.50675 52.39585 36339 ft 436 kts 234°
2026-05-04 15:09 43.47067 52.32883 36343 ft 436 kts 233°
2026-05-04 15:10 43.41676 52.22899 36341 ft 435 kts 233°
2026-05-04 15:11 43.36293 52.12962 36341 ft 434 kts 233°
2026-05-04 15:11 43.32676 52.06305 36344 ft 434 kts 233°
2026-05-04 15:12 43.29083 51.99707 36346 ft 434 kts 233°
2026-05-04 15:12 43.25476 51.93098 36347 ft 433 kts 233°
2026-05-04 15:13 43.21870 51.86505 36348 ft 434 kts 233°
2026-05-04 15:13 43.18270 51.79937 36349 ft 433 kts 233°
2026-05-04 15:14 43.14649 51.73347 36351 ft 435 kts 233°
2026-05-04 15:14 43.11008 51.66735 36356 ft 434 kts 233°
2026-05-04 15:15 43.07387 51.60173 36362 ft 433 kts 233°
2026-05-04 15:15 43.03769 51.53632 36366 ft 433 kts 233°
2026-05-04 15:16 42.98337 51.43837 36355 ft 431 kts 233°
2026-05-04 15:17 42.92897 51.34061 36366 ft 432 kts 233°
2026-05-04 15:17 42.87442 51.24291 36385 ft 433 kts 233°
2026-05-04 15:18 42.83826 51.17831 36380 ft 431 kts 233°
2026-05-04 15:19 42.78356 51.08086 36374 ft 433 kts 233°
2026-05-04 15:19 42.72914 50.98423 36378 ft 432 kts 233°
2026-05-04 15:20 42.69268 50.91968 36370 ft 430 kts 233°
2026-05-04 15:20 42.65629 50.85537 36358 ft 429 kts 233°
2026-05-04 15:21 42.62020 50.79173 36354 ft 428 kts 233°
2026-05-04 15:22 42.56556 50.69566 36353 ft 430 kts 233°
2026-05-04 15:22 42.51099 50.59999 36360 ft 430 kts 233°
2026-05-04 15:23 42.47442 50.53607 36350 ft 428 kts 233°
2026-05-04 15:23 42.43801 50.47255 36354 ft 429 kts 232°
2026-05-04 15:24 42.36874 50.34212 36361 ft 427 kts 234°
2026-05-04 15:25 42.33409 50.27649 36359 ft 428 kts 234°
2026-05-04 15:26 42.28235 50.17894 36373 ft 426 kts 234°
2026-05-04 15:26 42.23058 50.08175 36355 ft 427 kts 234°
2026-05-04 15:27 42.17864 49.98461 36370 ft 427 kts 234°
2026-05-04 15:28 42.12659 49.88757 36361 ft 427 kts 234°
2026-05-04 15:29 42.07451 49.79081 36361 ft 427 kts 234°
2026-05-04 15:30 41.95299 49.56620 36374 ft 424 kts 234°
2026-05-04 15:31 41.90091 49.47045 36379 ft 424 kts 234°
2026-05-04 15:32 41.81379 49.31096 36378 ft 424 kts 233°
2026-05-04 15:34 41.73199 49.14753 36384 ft 424 kts 236°
2026-05-04 15:34 41.68286 49.04896 36391 ft 424 kts 235°
2026-05-04 15:35 41.63398 48.95135 36380 ft 423 kts 235°
2026-05-04 15:36 41.58496 48.85385 36377 ft 423 kts 235°
2026-05-04 15:36 41.55209 48.78866 36372 ft 423 kts 235°
2026-05-04 15:37 41.51901 48.72348 36377 ft 423 kts 234°
2026-05-04 15:37 41.48449 48.66031 36379 ft 424 kts 233°
2026-05-04 15:38 41.44989 48.59722 36381 ft 424 kts 233°
2026-05-04 15:38 41.41522 48.53399 36384 ft 425 kts 233°
2026-05-04 15:39 41.38049 48.47071 36384 ft 424 kts 233°
2026-05-04 15:40 41.32806 48.37537 36427 ft 430 kts 233°
2026-05-04 15:40 41.29237 48.31061 36489 ft 437 kts 233°
2026-05-04 15:41 41.25652 48.24569 36557 ft 438 kts 233°
2026-05-04 15:41 41.22053 48.18067 36584 ft 438 kts 232°
2026-05-04 15:42 41.18460 48.11587 36583 ft 438 kts 232°
2026-05-04 15:42 41.14833 48.05060 36559 ft 438 kts 232°
2026-05-04 15:43 41.11520 47.98300 36540 ft 440 kts 242°
2026-05-04 15:43 41.09565 47.90577 36529 ft 446 kts 254°
2026-05-04 15:44 41.08176 47.82638 36462 ft 445 kts 254°
2026-05-04 15:44 41.06772 47.74664 36432 ft 445 kts 254°
2026-05-04 15:45 41.05362 47.66725 36393 ft 445 kts 254°
2026-05-04 15:45 41.03944 47.58786 36388 ft 443 kts 253°
2026-05-04 15:46 41.02522 47.50872 36382 ft 443 kts 253°
2026-05-04 15:46 41.01094 47.42961 36341 ft 443 kts 253°
2026-05-04 15:47 40.99663 47.35073 36332 ft 441 kts 253°
2026-05-04 15:47 40.98235 47.27232 36323 ft 442 kts 253°
2026-05-04 15:48 40.96792 47.19341 36322 ft 441 kts 252°
2026-05-04 15:48 40.95028 47.09740 36280 ft 440 kts 252°
2026-05-04 15:49 40.94815 47.08586 36285 ft 440 kts 252°
2026-05-04 15:49 40.93365 47.00735 36277 ft 442 kts 253°
2026-05-04 15:50 40.91907 46.92874 36268 ft 442 kts 252°
2026-05-04 15:50 40.90443 46.85012 36272 ft 442 kts 253°
2026-05-04 15:51 40.89407 46.77000 36293 ft 445 kts 259°
2026-05-04 15:51 40.88658 46.68898 36289 ft 446 kts 259°
2026-05-04 15:52 40.87899 46.60803 36292 ft 446 kts 259°
2026-05-04 15:52 40.87130 46.52697 36297 ft 447 kts 259°
2026-05-04 15:53 40.86348 46.44547 36301 ft 447 kts 259°
2026-05-04 15:53 40.85564 46.36428 36303 ft 448 kts 259°
2026-05-04 15:54 40.84774 46.28315 36311 ft 448 kts 258°
2026-05-04 15:54 40.83971 46.20137 36312 ft 447 kts 258°
2026-05-04 15:55 40.83168 46.12025 36315 ft 449 kts 258°
2026-05-04 15:55 40.82358 46.03892 36329 ft 448 kts 258°
2026-05-04 15:56 40.81538 45.95728 36335 ft 451 kts 258°
2026-05-04 15:56 40.80714 45.87581 36339 ft 451 kts 258°
2026-05-04 15:57 40.79883 45.79418 36356 ft 451 kts 258°
2026-05-04 15:57 40.79040 45.71206 36362 ft 452 kts 258°
2026-05-04 15:58 40.78198 45.63044 36366 ft 452 kts 258°
2026-05-04 15:58 40.77345 45.54848 36338 ft 452 kts 258°
2026-05-04 15:59 40.76999 45.46574 36382 ft 461 kts 268°
2026-05-04 15:59 40.77399 45.38107 36371 ft 463 kts 269°
2026-05-04 16:00 40.77798 45.29678 36427 ft 461 kts 268°
2026-05-04 16:00 40.78183 45.21257 36422 ft 464 kts 268°
2026-05-04 16:01 40.78561 45.12814 36453 ft 464 kts 268°
2026-05-04 16:01 40.78931 45.04329 36423 ft 465 kts 268°
2026-05-04 16:02 40.79297 44.95816 36394 ft 464 kts 268°
2026-05-04 16:03 40.79829 44.83113 36393 ft 466 kts 268°
2026-05-04 16:03 40.80178 44.74601 36425 ft 467 kts 268°
2026-05-04 16:04 40.80523 44.66040 36413 ft 467 kts 268°
2026-05-04 16:04 40.81025 44.53249 36445 ft 468 kts 268°
2026-05-04 16:05 40.81354 44.44690 36448 ft 468 kts 268°
2026-05-04 16:06 40.81834 44.31858 36455 ft 470 kts 268°
2026-05-04 16:07 40.82454 44.14703 36442 ft 471 kts 267°
2026-05-04 16:08 40.83049 43.97540 36427 ft 470 kts 267°
2026-05-04 16:09 40.83758 43.76071 36431 ft 469 kts 268°
2026-05-04 16:10 40.84510 43.58853 36425 ft 471 kts 269°
2026-05-04 16:11 40.85476 43.41838 36447 ft 474 kts 269°
2026-05-04 16:12 40.86877 43.15769 36447 ft 474 kts 268°
2026-05-04 16:13 40.87774 42.98380 36437 ft 477 kts 268°
2026-05-04 16:14 40.88646 42.80938 36439 ft 480 kts 269°
2026-05-04 16:16 40.89708 42.58966 36440 ft 481 kts 269°
2026-05-04 16:17 40.90728 42.36998 36417 ft 482 kts 269°
2026-05-04 16:18 40.91514 42.19378 36395 ft 485 kts 268°
2026-05-04 16:19 40.92464 41.97260 36393 ft 483 kts 268°
2026-05-04 16:20 40.93376 41.75047 36417 ft 485 kts 269°
2026-05-04 16:22 40.94242 41.52905 36411 ft 483 kts 269°
2026-05-04 16:23 40.95224 41.26331 36436 ft 482 kts 269°
2026-05-04 16:24 40.95844 41.08633 36252 ft 484 kts 269°
2026-05-04 16:25 40.96144 40.99782 36113 ft 484 kts 269°
2026-05-04 16:26 40.96727 40.82001 35888 ft 483 kts 269°
2026-05-04 16:26 40.97143 40.68707 35872 ft 484 kts 269°
2026-05-04 16:28 40.97804 40.46532 35878 ft 486 kts 269°
2026-05-04 16:29 40.98659 40.15426 35866 ft 484 kts 269°
2026-05-04 16:31 40.99211 39.93171 35868 ft 486 kts 269°
2026-05-04 16:32 41.00784 39.66391 35857 ft 489 kts 275°
2026-05-04 16:33 41.02486 39.48590 35850 ft 489 kts 275°
2026-05-04 16:34 41.03737 39.35262 35855 ft 490 kts 275°
2026-05-04 16:35 41.06211 39.08418 35849 ft 492 kts 275°
2026-05-04 16:36 41.07453 38.94965 35851 ft 491 kts 275°
2026-05-04 16:37 41.08674 38.81540 35855 ft 492 kts 275°
2026-05-04 16:38 41.10274 38.63552 35856 ft 493 kts 275°
2026-05-04 16:39 41.12167 38.41051 35862 ft 493 kts 275°
2026-05-04 16:40 41.13655 38.22965 35870 ft 494 kts 274°
2026-05-04 16:41 41.15490 38.00361 35875 ft 495 kts 274°
2026-05-04 16:43 41.17342 37.77762 35881 ft 496 kts 275°
2026-05-04 16:43 41.18493 37.64165 35885 ft 496 kts 275°
2026-05-04 16:45 41.20384 37.36878 35889 ft 497 kts 274°
2026-05-04 16:46 41.22085 37.14149 35874 ft 497 kts 274°
2026-05-04 16:47 41.23495 36.95913 35875 ft 498 kts 275°
2026-05-04 16:48 41.24876 36.77622 35877 ft 499 kts 275°
2026-05-04 16:49 41.26229 36.59290 35870 ft 500 kts 275°
2026-05-04 16:50 41.27702 36.50324 35872 ft 502 kts 288°
2026-05-04 16:50 41.29938 36.41560 35877 ft 503 kts 289°
2026-05-04 16:51 41.33306 36.28350 35874 ft 503 kts 288°
2026-05-04 16:52 41.37743 36.10799 35870 ft 504 kts 288°
2026-05-04 16:53 41.41067 35.97555 35878 ft 503 kts 288°
2026-05-04 16:54 41.45470 35.79892 35887 ft 504 kts 288°
2026-05-04 16:55 41.52029 35.53330 35876 ft 505 kts 289°
2026-05-04 16:56 41.57457 35.31114 35863 ft 506 kts 288°
2026-05-04 16:57 41.60693 35.17771 35871 ft 505 kts 289°
2026-05-04 16:58 41.64991 34.99923 35875 ft 506 kts 289°
2026-05-04 17:00 41.71384 34.73124 35872 ft 506 kts 289°
2026-05-04 17:01 41.76669 34.50725 35853 ft 507 kts 289°
2026-05-04 17:02 41.80865 34.32780 35850 ft 506 kts 289°
2026-05-04 17:03 41.83990 34.19322 35854 ft 508 kts 289°
2026-05-04 17:03 41.87107 34.05815 35876 ft 508 kts 289°
2026-05-04 17:04 41.91241 33.87784 35896 ft 508 kts 289°
2026-05-04 17:05 41.95334 33.69774 35900 ft 505 kts 289°
2026-05-04 17:06 41.97991 33.56084 35902 ft 506 kts 287°
2026-05-04 17:07 42.00301 33.43938 35901 ft 505 kts 288°
2026-05-04 17:07 42.02313 33.33346 35905 ft 503 kts 287°
2026-05-04 17:08 42.04906 33.19643 35902 ft 504 kts 287°
2026-05-04 17:09 42.06618 33.10555 35915 ft 504 kts 287°
2026-05-04 17:09 42.08403 33.01467 35914 ft 504 kts 289°
2026-05-04 17:10 42.13026 32.78917 35930 ft 503 kts 289°
2026-05-04 17:11 42.14862 32.69854 35919 ft 502 kts 289°
2026-05-04 17:12 42.17594 32.56284 35709 ft 500 kts 289°
2026-05-04 17:12 42.19402 32.47235 35911 ft 504 kts 289°
2026-05-04 17:13 42.22106 32.33618 35929 ft 503 kts 288°
2026-05-04 17:14 42.25681 32.15457 35895 ft 502 kts 288°
2026-05-04 17:15 42.28346 32.01817 35903 ft 501 kts 289°
2026-05-04 17:16 42.31866 31.83713 35904 ft 500 kts 288°
2026-05-04 17:17 42.35356 31.65595 35911 ft 499 kts 289°
2026-05-04 17:18 42.38817 31.47454 35925 ft 499 kts 289°
2026-05-04 17:19 42.42244 31.29326 35950 ft 500 kts 288°
2026-05-04 17:20 42.45644 31.11169 35927 ft 498 kts 288°
2026-05-04 17:20 42.48172 30.97533 35926 ft 498 kts 288°
2026-05-04 17:21 42.51502 30.79411 35962 ft 495 kts 288°
2026-05-04 17:22 42.53145 30.70413 35944 ft 497 kts 288°
2026-05-04 17:23 42.56424 30.52310 35980 ft 496 kts 288°
2026-05-04 17:24 42.58856 30.38772 35981 ft 494 kts 288°
2026-05-04 17:24 42.62143 30.25712 35993 ft 481 kts 305°
2026-05-04 17:25 42.64018 30.22000 35985 ft 475 kts 314°
2026-05-04 17:26 42.72713 30.08642 35995 ft 472 kts 316°
2026-05-04 17:27 42.82661 29.90843 35995 ft 475 kts 310°
2026-05-04 17:28 42.90355 29.76255 35995 ft 474 kts 310°
2026-05-04 17:29 43.01856 29.54318 36004 ft 476 kts 310°
2026-05-04 17:31 43.11388 29.36013 36006 ft 475 kts 310°
2026-05-04 17:32 43.20928 29.17578 36015 ft 475 kts 309°
2026-05-04 17:33 43.28523 29.02819 36019 ft 475 kts 309°
2026-05-04 17:34 43.36099 28.88023 36023 ft 474 kts 309°
2026-05-04 17:35 43.45531 28.69498 36036 ft 474 kts 309°
2026-05-04 17:36 43.49298 28.62067 36038 ft 474 kts 309°
2026-05-04 17:36 43.53048 28.54649 36038 ft 474 kts 308°
2026-05-04 17:37 43.56791 28.47228 36045 ft 474 kts 308°
2026-05-04 17:37 43.60546 28.39765 36052 ft 473 kts 308°
2026-05-04 17:38 43.64278 28.32327 36051 ft 473 kts 308°
2026-05-04 17:38 43.68001 28.24889 36054 ft 473 kts 307°
2026-05-04 17:39 43.73603 28.13663 36055 ft 474 kts 307°
2026-05-04 17:39 43.77325 28.06179 36058 ft 473 kts 307°
2026-05-04 17:40 43.81024 27.98722 36058 ft 473 kts 307°
2026-05-04 17:40 43.84726 27.91242 36063 ft 473 kts 307°
2026-05-04 17:41 43.88422 27.83752 36067 ft 473 kts 307°
2026-05-04 17:41 43.92130 27.76221 36064 ft 471 kts 307°
2026-05-04 17:42 43.95792 27.68762 36065 ft 471 kts 307°
2026-05-04 17:42 43.99480 27.61232 36067 ft 470 kts 307°
2026-05-04 17:43 44.03148 27.53725 36063 ft 471 kts 307°
2026-05-04 17:43 44.06795 27.46239 36059 ft 470 kts 307°
2026-05-04 17:44 44.10446 27.38726 36065 ft 471 kts 306°
2026-05-04 17:44 44.14079 27.31232 36063 ft 469 kts 306°
2026-05-04 17:45 44.17731 27.23678 36063 ft 467 kts 306°
2026-05-04 17:45 44.21334 27.16208 36059 ft 468 kts 305°
2026-05-04 17:46 44.24960 27.08670 36059 ft 469 kts 306°
2026-05-04 17:46 44.28567 27.01151 36061 ft 469 kts 305°
2026-05-04 17:47 44.32174 26.93613 36056 ft 469 kts 305°
2026-05-04 17:47 44.35765 26.86088 36054 ft 467 kts 305°
2026-05-04 17:48 44.39371 26.78512 36054 ft 466 kts 305°
2026-05-04 17:48 44.42932 26.71012 36054 ft 465 kts 305°
2026-05-04 17:49 44.46495 26.63489 36054 ft 467 kts 305°
2026-05-04 17:49 44.50069 26.55921 36053 ft 466 kts 305°
2026-05-04 17:50 44.53653 26.48312 36050 ft 466 kts 305°
2026-05-04 17:50 44.57188 26.40789 36050 ft 465 kts 305°
2026-05-04 17:51 44.60731 26.33229 36049 ft 465 kts 304°
2026-05-04 17:51 44.64265 26.25666 36049 ft 464 kts 304°
2026-05-04 17:52 44.67816 26.18049 36052 ft 465 kts 304°
2026-05-04 17:52 44.71331 26.10488 36043 ft 465 kts 304°
2026-05-04 17:53 44.74866 26.02866 36047 ft 466 kts 304°
2026-05-04 17:53 44.78373 25.95281 36056 ft 466 kts 304°
2026-05-04 17:54 44.81896 25.87643 36054 ft 465 kts 303°
2026-05-04 17:54 44.85374 25.80082 36056 ft 464 kts 303°
2026-05-04 17:55 44.88889 25.72422 36063 ft 465 kts 303°
2026-05-04 17:55 44.92375 25.64803 36066 ft 464 kts 303°
2026-05-04 17:56 44.95865 25.57156 36069 ft 465 kts 303°
2026-05-04 17:56 44.99340 25.49519 36073 ft 464 kts 303°
2026-05-04 17:57 45.02831 25.41829 36080 ft 464 kts 303°
2026-05-04 17:57 45.06281 25.34208 36091 ft 463 kts 303°
2026-05-04 17:58 45.09756 25.26512 36092 ft 463 kts 302°
2026-05-04 17:58 45.13199 25.18863 36097 ft 464 kts 302°
2026-05-04 17:59 45.16651 25.11175 36100 ft 464 kts 302°
2026-05-04 18:00 45.21837 24.99588 36086 ft 463 kts 303°
2026-05-04 18:00 45.25286 24.91854 36088 ft 465 kts 303°
2026-05-04 18:01 45.28724 24.84126 36110 ft 464 kts 303°
2026-05-04 18:01 45.32149 24.76403 36109 ft 465 kts 303°
2026-05-04 18:02 45.37286 24.64783 36129 ft 466 kts 303°
2026-05-04 18:02 45.40712 24.57004 36124 ft 466 kts 303°
2026-05-04 18:03 45.44157 24.49165 36131 ft 467 kts 304°
2026-05-04 18:03 45.47589 24.41331 36123 ft 466 kts 304°
2026-05-04 18:04 45.51016 24.33486 36122 ft 468 kts 303°
2026-05-04 18:05 45.56157 24.21678 36104 ft 469 kts 303°
2026-05-04 18:05 45.59572 24.13806 36108 ft 469 kts 303°
2026-05-04 18:06 45.64690 24.01968 36113 ft 470 kts 303°
2026-05-04 18:06 45.68118 23.94011 36115 ft 469 kts 303°
2026-05-04 18:07 45.71517 23.86100 36113 ft 469 kts 303°
2026-05-04 18:07 45.74905 23.78191 36120 ft 469 kts 303°
2026-05-04 18:08 45.78319 23.70198 36114 ft 470 kts 304°
2026-05-04 18:08 45.81708 23.62242 36123 ft 471 kts 303°
2026-05-04 18:09 45.88508 23.46211 36119 ft 471 kts 304°
2026-05-04 18:10 45.91877 23.38233 36104 ft 469 kts 303°
2026-05-04 18:10 45.95243 23.30239 36103 ft 469 kts 303°
2026-05-04 18:11 45.98617 23.22203 36100 ft 470 kts 303°
2026-05-04 18:11 46.01962 23.14214 36103 ft 470 kts 303°
2026-05-04 18:12 46.05318 23.06175 36109 ft 470 kts 303°
2026-05-04 18:12 46.08697 22.98059 36109 ft 471 kts 303°
2026-05-04 18:13 46.12040 22.90003 36116 ft 469 kts 303°
2026-05-04 18:14 46.17019 22.77964 36106 ft 469 kts 303°
2026-05-04 18:14 46.20343 22.69898 36102 ft 469 kts 303°
2026-05-04 18:15 46.26958 22.53772 36116 ft 469 kts 303°
2026-05-04 18:16 46.30263 22.45683 36109 ft 469 kts 303°
2026-05-04 18:16 46.33555 22.37601 36106 ft 468 kts 303°
2026-05-04 18:17 46.38507 22.25397 36102 ft 468 kts 302°
2026-05-04 18:18 46.43408 22.13263 36093 ft 468 kts 303°
2026-05-04 18:18 46.46678 22.05139 36086 ft 468 kts 303°
2026-05-04 18:19 46.51554 21.92982 36070 ft 467 kts 303°
2026-05-04 18:19 46.54810 21.84831 36072 ft 467 kts 303°
2026-05-04 18:20 46.58054 21.76687 36070 ft 467 kts 302°
2026-05-04 18:20 46.61286 21.68551 36070 ft 467 kts 303°
2026-05-04 18:21 46.64503 21.60428 36069 ft 467 kts 303°
2026-05-04 18:21 46.67728 21.52236 36065 ft 467 kts 301°
2026-05-04 18:22 46.70394 21.43592 36067 ft 469 kts 296°
2026-05-04 18:22 46.72921 21.34870 36066 ft 469 kts 295°
2026-05-04 18:23 46.75416 21.26154 36065 ft 469 kts 295°
2026-05-04 18:23 46.77909 21.17373 36061 ft 469 kts 295°
2026-05-04 18:24 46.80389 21.08593 36062 ft 469 kts 295°
2026-05-04 18:24 46.82839 20.99872 36061 ft 468 kts 295°
2026-05-04 18:25 46.85298 20.91081 36057 ft 467 kts 295°
2026-05-04 18:25 46.87735 20.82341 36059 ft 467 kts 295°
2026-05-04 18:26 46.90167 20.73582 36055 ft 467 kts 295°
2026-05-04 18:26 46.92602 20.64776 36053 ft 467 kts 294°
2026-05-04 18:27 46.95035 20.55947 36053 ft 467 kts 295°
2026-05-04 18:27 46.97436 20.47203 36054 ft 467 kts 294°
2026-05-04 18:28 46.99842 20.38406 36048 ft 466 kts 294°
2026-05-04 18:28 47.02237 20.29616 36055 ft 467 kts 294°
2026-05-04 18:29 47.04634 20.20788 36052 ft 466 kts 294°
2026-05-04 18:29 47.07016 20.11982 36054 ft 466 kts 293°
2026-05-04 18:30 47.10569 19.98784 36058 ft 466 kts 293°
2026-05-04 18:31 47.12949 19.89904 36062 ft 466 kts 293°
2026-05-04 18:31 47.15290 19.81134 36057 ft 466 kts 293°
2026-05-04 18:32 47.17646 19.72275 36053 ft 465 kts 293°
2026-05-04 18:32 47.19984 19.63454 36053 ft 466 kts 293°
2026-05-04 18:33 47.22324 19.54587 36056 ft 465 kts 293°
2026-05-04 18:33 47.24643 19.45770 36050 ft 464 kts 293°
2026-05-04 18:34 47.26963 19.36911 36049 ft 464 kts 293°
2026-05-04 18:34 47.29260 19.28110 36044 ft 464 kts 292°
2026-05-04 18:35 47.31560 19.19262 36050 ft 465 kts 292°
2026-05-04 18:35 47.33875 19.10322 36049 ft 466 kts 292°
2026-05-04 18:36 47.36167 19.01436 36041 ft 465 kts 292°
2026-05-04 18:36 47.38441 18.92588 36044 ft 465 kts 292°
2026-05-04 18:37 47.40710 18.83724 36035 ft 464 kts 292°
2026-05-04 18:37 47.42974 18.74844 36026 ft 464 kts 292°
2026-05-04 18:38 47.45236 18.65941 36029 ft 464 kts 292°
2026-05-04 18:38 47.47499 18.56995 36016 ft 463 kts 292°
2026-05-04 18:39 47.49734 18.48128 36017 ft 464 kts 292°
2026-05-04 18:39 47.51970 18.39217 36018 ft 465 kts 292°
2026-05-04 18:40 47.54211 18.30258 36018 ft 464 kts 291°
2026-05-04 18:40 47.56436 18.21323 36010 ft 464 kts 291°
2026-05-04 18:41 47.58647 18.12407 36006 ft 464 kts 291°
2026-05-04 18:41 47.60867 18.03423 36001 ft 464 kts 291°
2026-05-04 18:42 47.63078 17.94437 36003 ft 464 kts 291°
2026-05-04 18:42 47.65270 17.85494 35999 ft 463 kts 291°
2026-05-04 18:43 47.67445 17.76584 36003 ft 464 kts 291°
2026-05-04 18:43 47.69631 17.67594 35996 ft 463 kts 291°
2026-05-04 18:44 47.71794 17.58661 35989 ft 463 kts 291°
2026-05-04 18:44 47.73956 17.49698 35979 ft 463 kts 291°
2026-05-04 18:45 47.76115 17.40711 35979 ft 463 kts 291°
2026-05-04 18:45 47.78272 17.31690 35978 ft 463 kts 290°
2026-05-04 18:46 47.80405 17.22736 35971 ft 462 kts 290°
2026-05-04 18:46 47.82540 17.13739 35970 ft 463 kts 290°
2026-05-04 18:47 47.84876 17.04937 35971 ft 461 kts 295°
2026-05-04 18:47 47.87469 16.96251 35957 ft 461 kts 295°
2026-05-04 18:48 47.90049 16.87498 35955 ft 461 kts 294°
2026-05-04 18:48 47.92591 16.78794 35953 ft 462 kts 294°
2026-05-04 18:49 47.95138 16.70014 35949 ft 461 kts 294°
2026-05-04 18:49 47.97660 16.61277 35949 ft 462 kts 294°
2026-05-04 18:50 48.00197 16.52450 35950 ft 462 kts 294°
2026-05-04 18:50 48.02711 16.43667 35944 ft 461 kts 294°
2026-05-04 18:51 48.05208 16.34909 35943 ft 463 kts 293°
2026-05-04 18:51 48.07722 16.26058 35947 ft 462 kts 293°
2026-05-04 18:52 48.10223 16.17220 35943 ft 462 kts 293°
2026-05-04 18:52 48.12717 16.08376 35932 ft 463 kts 293°
2026-05-04 18:53 48.15195 15.99553 35922 ft 463 kts 292°
2026-05-04 18:53 48.17680 15.90676 35917 ft 462 kts 292°
2026-05-04 18:54 48.20148 15.81821 35908 ft 463 kts 292°
2026-05-04 18:54 48.22617 15.72935 35909 ft 463 kts 292°
2026-05-04 18:55 48.25070 15.64070 35912 ft 464 kts 292°
2026-05-04 18:55 48.28763 15.50664 35923 ft 463 kts 292°
2026-05-04 18:56 48.31189 15.41814 35919 ft 463 kts 292°
2026-05-04 18:56 48.33634 15.32864 35917 ft 463 kts 291°
2026-05-04 18:57 48.36054 15.23969 35922 ft 463 kts 291°
2026-05-04 18:57 48.38474 15.15041 35924 ft 462 kts 291°
2026-05-04 18:58 48.40899 15.06058 35927 ft 464 kts 291°
2026-05-04 18:58 48.43309 14.97101 35933 ft 464 kts 291°
2026-05-04 18:59 48.45717 14.88115 35938 ft 464 kts 291°
2026-05-04 18:59 48.48115 14.79131 35952 ft 464 kts 291°
2026-05-04 19:00 48.50510 14.70123 35962 ft 464 kts 291°
2026-05-04 19:00 48.52898 14.61104 35946 ft 464 kts 291°
2026-05-04 19:01 48.55268 14.52124 35934 ft 465 kts 291°
2026-05-04 19:01 48.57648 14.43067 35929 ft 464 kts 291°
2026-05-04 19:02 48.60015 14.34026 35934 ft 465 kts 290°
2026-05-04 19:02 48.62388 14.24922 35941 ft 466 kts 290°
2026-05-04 19:03 48.64739 14.15872 35940 ft 466 kts 290°
2026-05-04 19:03 48.67104 14.06727 35934 ft 466 kts 290°
2026-05-04 19:04 48.69441 13.97663 35944 ft 465 kts 290°
2026-05-04 19:04 48.71783 13.88534 35950 ft 465 kts 289°
2026-05-04 19:05 48.74112 13.79421 35947 ft 465 kts 290°
2026-05-04 19:05 48.76442 13.70270 35945 ft 466 kts 289°
2026-05-04 19:06 48.78656 13.61088 35947 ft 466 kts 288°
2026-05-04 19:06 48.80852 13.51865 35945 ft 467 kts 288°
2026-05-04 19:07 48.83038 13.42664 35945 ft 466 kts 288°
2026-05-04 19:07 48.85216 13.33465 35949 ft 466 kts 287°
2026-05-04 19:08 48.87405 13.24189 35945 ft 466 kts 287°
2026-05-04 19:08 48.89564 13.15001 35938 ft 465 kts 287°
2026-05-04 19:09 48.91728 13.05753 35929 ft 466 kts 287°
2026-05-04 19:09 48.93880 12.96519 35922 ft 466 kts 287°
2026-05-04 19:10 48.96039 12.87212 35927 ft 467 kts 287°
2026-05-04 19:10 48.98182 12.77937 35926 ft 468 kts 287°
2026-05-04 19:11 49.00332 12.68591 35925 ft 468 kts 287°
2026-05-04 19:11 49.02466 12.59276 35928 ft 468 kts 287°
2026-05-04 19:12 49.05647 12.45310 35922 ft 467 kts 287°
2026-05-04 19:13 49.07774 12.35923 35922 ft 468 kts 287°
2026-05-04 19:13 49.09878 12.26591 35921 ft 468 kts 286°
2026-05-04 19:14 49.11988 12.17195 35921 ft 469 kts 286°
2026-05-04 19:14 49.14086 12.07807 35922 ft 470 kts 286°
2026-05-04 19:15 49.16192 11.98348 35931 ft 471 kts 286°
2026-05-04 19:15 49.18279 11.88924 35942 ft 470 kts 286°
2026-05-04 19:16 49.20359 11.79495 35945 ft 468 kts 286°
2026-05-04 19:16 49.22421 11.70103 35952 ft 467 kts 286°
2026-05-04 19:17 49.24483 11.60667 35945 ft 469 kts 286°
2026-05-04 19:17 49.26526 11.51273 35945 ft 469 kts 286°
2026-05-04 19:18 49.28575 11.41810 35942 ft 470 kts 286°
2026-05-04 19:18 49.30613 11.32356 35945 ft 468 kts 285°
2026-05-04 19:19 49.32643 11.22899 35946 ft 468 kts 285°
2026-05-04 19:19 49.34655 11.13474 35945 ft 468 kts 285°
2026-05-04 19:20 49.36667 11.04012 35961 ft 467 kts 285°
2026-05-04 19:20 49.38696 10.94558 35952 ft 468 kts 288°
2026-05-04 19:21 49.41486 10.85574 35958 ft 471 kts 294°
2026-05-04 19:21 49.44429 10.76593 35959 ft 470 kts 294°
2026-05-04 19:22 49.47351 10.67600 35956 ft 469 kts 293°
2026-05-04 19:22 49.50249 10.58630 35964 ft 469 kts 293°
2026-05-04 19:23 49.53119 10.49701 35968 ft 470 kts 293°
2026-05-04 19:23 49.55993 10.40722 35965 ft 470 kts 293°
2026-05-04 19:24 49.58870 10.31698 35972 ft 468 kts 292°
2026-05-04 19:24 49.61726 10.22707 35965 ft 466 kts 292°
2026-05-04 19:25 49.64571 10.13714 35958 ft 467 kts 292°
2026-05-04 19:25 49.67400 10.04741 35964 ft 468 kts 292°
2026-05-04 19:26 49.70224 9.95750 35963 ft 468 kts 292°
2026-05-04 19:26 49.73048 9.86726 35964 ft 468 kts 292°
2026-05-04 19:27 49.75868 9.77684 35964 ft 468 kts 292°
2026-05-04 19:27 49.78677 9.68642 35963 ft 469 kts 292°
2026-05-04 19:28 49.81483 9.59578 35960 ft 467 kts 292°
2026-05-04 19:28 49.84267 9.50550 35955 ft 467 kts 292°
2026-05-04 19:29 49.87071 9.41424 35962 ft 467 kts 291°
2026-05-04 19:29 49.89844 9.32364 35962 ft 468 kts 291°
2026-05-04 19:30 49.92617 9.23275 35962 ft 468 kts 291°
2026-05-04 19:30 49.95380 9.14180 35958 ft 467 kts 291°
2026-05-04 19:31 49.98119 9.05135 35958 ft 466 kts 291°
2026-05-04 19:31 50.00879 8.95982 35951 ft 467 kts 291°
2026-05-04 19:32 50.03616 8.86873 35963 ft 468 kts 291°
2026-05-04 19:32 50.06208 8.77694 35966 ft 464 kts 287°
2026-05-04 19:33 50.08446 8.68294 35964 ft 465 kts 286°
2026-05-04 19:33 50.10674 8.58860 35963 ft 465 kts 286°
2026-05-04 19:34 50.12886 8.49455 35963 ft 464 kts 286°
2026-05-04 19:34 50.15095 8.40012 35967 ft 464 kts 286°
2026-05-04 19:35 50.17294 8.30575 35971 ft 463 kts 285°
2026-05-04 19:35 50.19467 8.21204 35968 ft 464 kts 285°
2026-05-04 19:36 50.21650 8.11752 35970 ft 464 kts 285°
2026-05-04 19:36 50.23830 8.02266 35974 ft 465 kts 285°
2026-05-04 19:37 50.25991 7.92824 35975 ft 465 kts 285°
2026-05-04 19:37 50.28152 7.83339 35978 ft 465 kts 285°
2026-05-04 19:38 50.30300 7.73868 35972 ft 462 kts 285°
2026-05-04 19:38 50.32436 7.64407 35973 ft 466 kts 285°
2026-05-04 19:39 50.34578 7.54882 35965 ft 462 kts 285°
2026-05-04 19:39 50.36691 7.45439 35969 ft 463 kts 285°
2026-05-04 19:40 50.38816 7.35897 35970 ft 463 kts 285°
2026-05-04 19:40 50.40913 7.26441 35970 ft 464 kts 284°
2026-05-04 19:41 50.43011 7.16935 35970 ft 463 kts 284°
2026-05-04 19:41 50.45109 7.07388 35965 ft 463 kts 284°
2026-05-04 19:42 50.47193 6.97857 35963 ft 464 kts 284°
2026-05-04 19:42 50.49267 6.88332 35958 ft 464 kts 284°
2026-05-04 19:43 50.51311 6.78723 35948 ft 463 kts 281°
2026-05-04 19:43 50.53005 6.69009 35948 ft 463 kts 280°
2026-05-04 19:44 50.54696 6.59247 35948 ft 462 kts 281°
2026-05-04 19:44 50.56387 6.49503 35948 ft 463 kts 281°
2026-05-04 19:45 50.58080 6.39733 35944 ft 464 kts 281°
2026-05-04 19:45 50.59768 6.29953 35947 ft 463 kts 280°
2026-05-04 19:46 50.61434 6.20263 35946 ft 464 kts 280°
2026-05-04 19:46 50.63108 6.10469 35946 ft 464 kts 280°
2026-05-04 19:47 50.64787 6.00602 35948 ft 467 kts 280°
2026-05-04 19:47 50.66447 5.90787 35955 ft 466 kts 280°
2026-05-04 19:48 50.68108 5.80913 35957 ft 468 kts 280°
2026-05-04 19:48 50.69754 5.71074 35956 ft 466 kts 280°
2026-05-04 19:49 50.71397 5.61195 35955 ft 468 kts 280°
2026-05-04 19:49 50.73037 5.51279 35955 ft 468 kts 280°
2026-05-04 19:50 50.74670 5.41338 35949 ft 469 kts 280°
2026-05-04 19:50 50.76294 5.31405 35952 ft 468 kts 279°
2026-05-04 19:51 50.77897 5.21540 35954 ft 468 kts 280°
2026-05-04 19:51 50.79509 5.11558 35950 ft 470 kts 280°
2026-05-04 19:52 50.81481 5.01764 35945 ft 476 kts 291°
2026-05-04 19:52 50.84452 4.92367 35949 ft 477 kts 293°
2026-05-04 19:53 50.87418 4.83065 35956 ft 477 kts 292°
2026-05-04 19:53 50.90389 4.73678 35954 ft 478 kts 292°
2026-05-04 19:54 50.93333 4.64320 35955 ft 478 kts 292°
2026-05-04 19:54 50.96295 4.54862 35958 ft 478 kts 293°
2026-05-04 19:55 50.99219 4.45486 35954 ft 477 kts 293°
2026-05-04 19:55 51.02155 4.36029 35952 ft 478 kts 293°
2026-05-04 19:56 51.05063 4.26623 35956 ft 477 kts 292°
2026-05-04 19:56 51.07974 4.17173 35959 ft 476 kts 292°
2026-05-04 19:57 51.10862 4.07757 35951 ft 477 kts 292°
2026-05-04 19:57 51.13755 3.98290 35950 ft 477 kts 292°
2026-05-04 19:58 51.16645 3.88800 35944 ft 478 kts 292°
2026-05-04 19:58 51.19524 3.79304 35939 ft 477 kts 292°
2026-05-04 19:59 51.22408 3.69755 35946 ft 477 kts 292°
2026-05-04 19:59 51.25449 3.60342 35958 ft 480 kts 298°
2026-05-04 20:00 51.28883 3.51286 35964 ft 480 kts 298°
2026-05-04 20:00 51.32300 3.42177 35966 ft 479 kts 298°
2026-05-04 20:01 51.35406 3.32837 35965 ft 475 kts 289°
2026-05-04 20:01 51.37761 3.23053 35975 ft 474 kts 288°
2026-05-04 20:02 51.40097 3.13183 35978 ft 475 kts 288°
2026-05-04 20:02 51.42421 3.03319 35977 ft 475 kts 288°
2026-05-04 20:03 51.44735 2.93461 35985 ft 475 kts 288°
2026-05-04 20:03 51.47046 2.83569 35987 ft 475 kts 288°
2026-05-04 20:04 51.49349 2.73662 35992 ft 475 kts 288°
2026-05-04 20:04 51.51630 2.63800 35990 ft 475 kts 288°
2026-05-04 20:05 51.53920 2.53857 36302 ft 475 kts 288°
2026-05-04 20:05 51.55068 2.48853 36131 ft 476 kts 288°
2026-05-04 20:05 51.56189 2.43956 36005 ft 471 kts 288°
2026-05-04 20:05 51.57311 2.39039 35562 ft 468 kts 288°
2026-05-04 20:06 51.58423 2.34156 34685 ft 476 kts 287°
2026-05-04 20:06 51.59558 2.29169 33697 ft 481 kts 288°
2026-05-04 20:06 51.60714 2.24081 32797 ft 484 kts 288°
2026-05-04 20:06 51.61859 2.19032 31909 ft 486 kts 288°
2026-05-04 20:07 51.63018 2.13914 31009 ft 488 kts 288°
2026-05-04 20:07 51.64171 2.08805 30240 ft 485 kts 288°
2026-05-04 20:07 51.65303 2.03768 29780 ft 477 kts 288°
2026-05-04 20:07 51.66416 1.98802 29274 ft 470 kts 288°
2026-05-04 20:08 51.67503 1.93942 28735 ft 464 kts 288°
2026-05-04 20:08 51.68590 1.89065 28185 ft 458 kts 288°
2026-05-04 20:08 51.69648 1.84313 27649 ft 452 kts 288°
2026-05-04 20:08 51.70700 1.79576 27096 ft 447 kts 288°
2026-05-04 20:09 51.71736 1.74896 26554 ft 441 kts 288°
2026-05-04 20:09 51.72749 1.70311 26019 ft 436 kts 288°
2026-05-04 20:09 51.73716 1.65677 25466 ft 430 kts 284°
2026-05-04 20:09 51.74264 1.61061 24941 ft 423 kts 275°
2026-05-04 20:10 51.74361 1.56317 24338 ft 423 kts 266°
2026-05-04 20:10 51.74117 1.51586 23674 ft 427 kts 264°
2026-05-04 20:10 51.73825 1.46874 23031 ft 425 kts 264°
2026-05-04 20:10 51.73525 1.42144 22395 ft 422 kts 264°
2026-05-04 20:11 51.73228 1.37509 21772 ft 419 kts 264°
2026-05-04 20:11 51.72926 1.32852 21140 ft 416 kts 263°
2026-05-04 20:11 51.72624 1.28226 20520 ft 413 kts 263°
2026-05-04 20:11 51.72321 1.23637 19899 ft 411 kts 263°
2026-05-04 20:12 51.72020 1.19105 19284 ft 409 kts 263°
2026-05-04 20:12 51.71719 1.14599 18671 ft 406 kts 263°
2026-05-04 20:12 51.71417 1.10111 18075 ft 404 kts 263°
2026-05-04 20:12 51.71115 1.05655 17538 ft 400 kts 263°
2026-05-04 20:13 51.70812 1.01212 17003 ft 396 kts 263°
2026-05-04 20:13 51.70514 0.96871 16481 ft 392 kts 263°
2026-05-04 20:13 51.70215 0.92531 15931 ft 389 kts 263°
2026-05-04 20:13 51.69919 0.88265 15412 ft 385 kts 263°
2026-05-04 20:14 51.69622 0.84005 14855 ft 382 kts 264°
2026-05-04 20:14 51.69328 0.79820 14307 ft 379 kts 264°
2026-05-04 20:14 51.69032 0.75621 13758 ft 376 kts 264°
2026-05-04 20:14 51.68738 0.71462 13202 ft 374 kts 264°
2026-05-04 20:15 51.68441 0.67300 12682 ft 370 kts 264°
2026-05-04 20:15 51.68153 0.63269 12453 ft 358 kts 264°
2026-05-04 20:15 51.67875 0.59413 12372 ft 341 kts 264°
2026-05-04 20:15 51.67610 0.55736 12350 ft 324 kts 264°
2026-05-04 20:16 51.67350 0.52141 11935 ft 320 kts 264°
2026-05-04 20:16 51.67097 0.48642 11507 ft 319 kts 264°
2026-05-04 20:16 51.66837 0.45104 10991 ft 318 kts 264°
2026-05-04 20:16 51.66576 0.41564 10510 ft 318 kts 264°
2026-05-04 20:17 51.66316 0.38039 10014 ft 317 kts 264°
2026-05-04 20:17 51.66057 0.34545 9508 ft 317 kts 263°
2026-05-04 20:17 51.65796 0.31039 9007 ft 316 kts 263°
2026-05-04 20:17 51.65533 0.27518 8503 ft 316 kts 263°
2026-05-04 20:18 51.65272 0.24035 8000 ft 315 kts 263°
2026-05-04 20:18 51.65010 0.20555 7491 ft 315 kts 263°
2026-05-04 20:18 51.64743 0.17028 7073 ft 311 kts 264°
2026-05-04 20:18 51.64497 0.13682 7025 ft 295 kts 265°
2026-05-04 20:19 51.64325 0.10475 6985 ft 279 kts 266°
2026-05-04 20:19 51.64170 0.07434 6985 ft 263 kts 266°
2026-05-04 20:19 51.64019 0.04605 6984 ft 248 kts 266°
2026-05-04 20:19 51.63871 0.01906 6990 ft 235 kts 266°
2026-05-04 20:20 51.63728 -0.00692 6994 ft 234 kts 266°
2026-05-04 20:20 51.63584 -0.03271 6993 ft 232 kts 266°
2026-05-04 20:20 51.63440 -0.05837 6996 ft 231 kts 266°
2026-05-04 20:20 51.63293 -0.08441 6997 ft 231 kts 266°
2026-05-04 20:21 51.63147 -0.11020 6993 ft 232 kts 266°
2026-05-04 20:21 51.63001 -0.13595 6996 ft 233 kts 266°
2026-05-04 20:21 51.62706 -0.18761 6991 ft 232 kts 266°
2026-05-04 20:22 51.62556 -0.21361 6996 ft 232 kts 266°
2026-05-04 20:22 51.62409 -0.23913 6996 ft 232 kts 266°
2026-05-04 20:22 51.62257 -0.26538 6991 ft 233 kts 266°
2026-05-04 20:22 51.62107 -0.29108 6997 ft 232 kts 266°
2026-05-04 20:23 51.61956 -0.31702 7001 ft 232 kts 266°
2026-05-04 20:23 51.61805 -0.34277 7001 ft 232 kts 266°
2026-05-04 20:23 51.61652 -0.36871 6995 ft 232 kts 266°
2026-05-04 20:23 51.61501 -0.39436 6996 ft 231 kts 266°
2026-05-04 20:24 51.61351 -0.41975 6994 ft 227 kts 266°
2026-05-04 20:24 51.61201 -0.44480 6996 ft 227 kts 266°
2026-05-04 20:24 51.61050 -0.47012 6999 ft 226 kts 266°
2026-05-04 20:24 51.60899 -0.49532 6999 ft 226 kts 266°
2026-05-04 20:25 51.60746 -0.52074 6998 ft 227 kts 266°
2026-05-04 20:25 51.60596 -0.54566 6994 ft 227 kts 266°
2026-05-04 20:25 51.60442 -0.57107 6994 ft 227 kts 266°
2026-05-04 20:25 51.60289 -0.59630 6999 ft 227 kts 266°
2026-05-04 20:26 51.60135 -0.62144 6986 ft 227 kts 266°
2026-05-04 20:26 51.59980 -0.64674 6994 ft 227 kts 266°
2026-05-04 20:26 51.59824 -0.67217 6849 ft 230 kts 265°
2026-05-04 20:26 51.59668 -0.69748 6595 ft 229 kts 265°
2026-05-04 20:27 51.59512 -0.72276 6334 ft 227 kts 265°
2026-05-04 20:27 51.59354 -0.74810 6114 ft 223 kts 265°
2026-05-04 20:27 51.59108 -0.77227 5888 ft 221 kts 250°
2026-05-04 20:27 51.58281 -0.79247 5638 ft 220 kts 223°
2026-05-04 20:28 51.56945 -0.80449 5286 ft 222 kts 194°
2026-05-04 20:28 51.55421 -0.80511 4901 ft 224 kts 163°
2026-05-04 20:28 51.53937 -0.79709 4585 ft 224 kts 166°
2026-05-04 20:28 51.52426 -0.79423 4333 ft 217 kts 175°
2026-05-04 20:29 51.50938 -0.79326 4121 ft 209 kts 175°
2026-05-04 20:29 51.49569 -0.78764 3849 ft 200 kts 149°
2026-05-04 20:29 51.48552 -0.77339 3574 ft 192 kts 123°
2026-05-04 20:29 51.48029 -0.75456 3283 ft 186 kts 101°
2026-05-04 20:30 51.47808 -0.73434 2995 ft 182 kts 96°
2026-05-04 20:30 51.47651 -0.71556 2851 ft 162 kts 90°
2026-05-04 20:30 51.47641 -0.69820 2665 ft 147 kts 85°
2026-05-04 20:30 51.47659 -0.68231 2486 ft 140 kts 85°
2026-05-04 20:31 51.47668 -0.66705 2315 ft 137 kts 85°
2026-05-04 20:31 51.47676 -0.65172 2139 ft 136 kts 85°
2026-05-04 20:31 51.47684 -0.63680 1967 ft 135 kts 85°
2026-05-04 20:31 51.47692 -0.62183 1789 ft 134 kts 85°
2026-05-04 20:32 51.47701 -0.60677 1592 ft 135 kts 84°
2026-05-04 20:32 51.47706 -0.59184 1351 ft 135 kts 86°
2026-05-04 20:32 51.47713 -0.57680 1151 ft 135 kts 85°
2026-05-04 20:32 51.47715 -0.56173 958 ft 136 kts 86°
2026-05-04 20:33 51.47716 -0.54649 772 ft 138 kts 86°
2026-05-04 20:33 51.47739 -0.53097 647 ft 136 kts 86°
2026-05-04 20:33 51.47743 -0.51585 451 ft 136 kts 88°
2026-05-04 20:33 51.47745 -0.50077 307 ft 136 kts 86°
2026-05-04 20:34 51.47749 -0.48544 129 ft 137 kts 87°
2026-05-04 20:34 51.47764 -0.47155 92 ft 107 kts 91°
2026-05-04 20:34 51.47764 -0.46255 89 ft 54 kts 89°
2026-05-04 20:34 51.47760 -0.45927 87 ft 15 kts 91°
2026-05-04 20:35 51.47758 -0.45759 89 ft 15 kts 90°
2026-05-04 20:35 51.47754 -0.45577 91 ft 16 kts 102°
2026-05-04 20:35 51.47692 -0.45478 91 ft 5 kts 168°
2026-05-04 20:35 51.47687 -0.45477 91 ft 0 kts 171°
2026-05-04 20:40 51.47673 -0.45474 91 ft 4 kts 171°
2026-05-04 20:40 51.47625 -0.45469 92 ft 9 kts 177°
2026-05-04 20:41 51.47579 -0.45465 93 ft 2 kts 177°
2026-05-04 20:41 51.47571 -0.45465 93 ft 0 kts 176°
2026-05-04 20:41 51.47566 -0.45465 93 ft 0 kts 176°
2026-05-04 20:41 51.47555 -0.45464 93 ft 1 kts 181°
2026-05-04 20:42 51.47537 -0.45475 94 ft 3 kts 213°
2026-05-04 20:42 51.47517 -0.45521 94 ft 6 kts 248°
2026-05-04 20:42 51.47509 -0.45607 94 ft 8 kts 269°
2026-05-04 20:42 51.47511 -0.45682 93 ft 0 kts 274°
2026-05-04 20:43 51.47512 -0.45704 93 ft 3 kts 274°
2026-05-04 20:43 51.47515 -0.45765 92 ft 7 kts 271°
2026-05-04 20:43 51.47513 -0.45873 90 ft 10 kts 271°
2026-05-04 20:43 51.47516 -0.45997 90 ft 11 kts 271°
2026-05-04 20:44 51.47516 -0.46133 88 ft 13 kts 269°
2026-05-04 20:44 51.47515 -0.46284 87 ft 13 kts 269°
2026-05-04 20:44 51.47515 -0.46340 87 ft 0 kts 269°
2026-05-04 20:44 51.47514 -0.46353 88 ft 2 kts 257°
2026-05-04 20:45 51.47494 -0.46393 87 ft 7 kts 207°
2026-05-04 20:45 51.47447 -0.46409 87 ft 7 kts 185°
2026-05-04 20:45 51.47440 -0.46409 87 ft 0 kts 178°
2026-05-04 20:45 51.47435 -0.46409 87 ft 1 kts 178°
2026-05-04 20:46 51.47431 -0.46409 87 ft 0 kts 180°